Time,TemperatureF,DewpointF,PressureIn,WindDirection,WindDirectionDegrees,WindSpeedMPH,WindSpeedGustMPH,Humidity,HourlyPrecipIn,Conditions,Clouds,dailyrainin,SoftwareType,DateUTC
2013-06-25 00:00:00,71.6,67.9,29.87,WSW,247,3.0,14.0,88,0.03,,,0.05,WUHU216DAVISVP2,2013-06-25 04:00:00,
2013-06-25 00:01:00,71.6,67.9,29.87,WSW,247,3.0,14.0,88,0.03,,,0.05,WUHU216DAVISVP2,2013-06-25 04:01:00,
2013-06-25 00:04:00,71.6,67.9,29.87,West,281,2.0,14.0,88,0.01,,,0.00,WUHU216DAVISVP2,2013-06-25 04:04:00,
2013-06-25 00:05:00,71.6,67.5,29.87,WSW,246,1.0,14.0,87,0.00,,,0.00,WUHU216DAVISVP2,2013-06-25 04:05:00,
2013-06-25 00:08:00,71.6,67.5,29.86,WSW,243,2.0,8.0,87,0.00,,,0.00,WUHU216DAVISVP2,2013-06-25 04:08:00,
2013-06-25 00:09:00,71.6,67.5,29.86,WSW,243,2.0,8.0,87,0.00,,,0.00,WUHU216DAVISVP2,2013-06-25 04:09:00,
2013-06-25 00:10:00,71.6,67.5,29.86,WSW,252,0.0,8.0,87,0.00,,,0.00,WUHU216DAVISVP2,2013-06-25 04:10:00,
2013-06-25 00:12:00,71.6,67.5,29.86,West,275,0.0,8.0,87,0.00,,,0.00,WUHU216DAVISVP2,2013-06-25 04:12:00,
2013-06-25 00:14:00,71.6,67.5,29.86,WSW,252,3.0,8.0,87,0.00,,,0.00,WUHU216DAVISVP2,2013-06-25 04:14:00,
2013-06-25 00:16:00,71.6,67.5,29.86,SW,225,2.0,8.0,87,0.00,,,0.00,WUHU216DAVISVP2,2013-06-25 04:16:00,
2013-06-25 00:18:00,71.5,67.4,29.86,SSW,211,3.0,5.0,87,0.00,,,0.00,WUHU216DAVISVP2,2013-06-25 04:18:00,
2013-06-25 00:19:00,71.5,67.4,29.86,SSW,211,3.0,5.0,87,0.00,,,0.00,WUHU216DAVISVP2,2013-06-25 04:19:00,
2013-06-25 00:21:00,71.5,67.1,29.85,SW,222,0.0,5.0,86,0.00,,,0.00,WUHU216DAVISVP2,2013-06-25 04:21:00,
2013-06-25 00:23:00,71.4,67.3,29.85,SW,218,0.0,5.0,87,0.00,,,0.00,WUHU216DAVISVP2,2013-06-25 04:23:00,
2013-06-25 00:24:00,71.4,67.3,29.85,SW,218,0.0,5.0,87,0.00,,,0.00,WUHU216DAVISVP2,2013-06-25 04:24:00,
2013-06-25 00:25:00,71.4,67.0,29.85,West,264,0.0,5.0,86,0.00,,,0.00,WUHU216DAVISVP2,2013-06-25 04:25:00,
2013-06-25 00:26:00,71.3,66.9,29.85,SW,215,0.0,5.0,86,0.00,,,0.00,WUHU216DAVISVP2,2013-06-25 04:26:00,
2013-06-25 00:29:00,71.2,66.5,29.85,WSW,248,4.0,5.0,85,0.00,,,0.00,WUHU216DAVISVP2,2013-06-25 04:29:00,
2013-06-25 00:30:00,71.2,66.5,29.85,WSW,248,4.0,5.0,85,0.00,,,0.00,WUHU216DAVISVP2,2013-06-25 04:30:00,
2013-06-25 00:31:00,71.2,66.5,29.84,SW,221,0.0,6.0,85,0.00,,,0.00,WUHU216DAVISVP2,2013-06-25 04:31:00,
2013-06-25 00:33:00,71.2,66.5,29.84,WSW,252,1.0,6.0,85,0.00,,,0.00,WUHU216DAVISVP2,2013-06-25 04:33:00,
2013-06-25 00:35:00,71.2,66.5,29.84,WSW,252,0.0,6.0,85,0.00,,,0.00,WUHU216DAVISVP2,2013-06-25 04:35:00,
2013-06-25 00:37:00,71.1,66.1,29.84,WSW,248,0.0,6.0,84,0.00,,,0.00,WUHU216DAVISVP2,2013-06-25 04:37:00,
2013-06-25 00:39:00,71.1,66.1,29.84,WSW,242,2.0,6.0,84,0.00,,,0.00,WUHU216DAVISVP2,2013-06-25 04:39:00,
2013-06-25 00:40:00,71.1,66.1,29.84,WSW,242,2.0,6.0,84,0.00,,,0.00,WUHU216DAVISVP2,2013-06-25 04:40:00,
2013-06-25 00:42:00,71.0,66.3,29.83,SSW,197,0.0,6.0,85,0.00,,,0.00,WUHU216DAVISVP2,2013-06-25 04:42:00,
2013-06-25 00:44:00,70.9,66.2,29.84,South,190,0.0,6.0,85,0.00,,,0.00,WUHU216DAVISVP2,2013-06-25 04:44:00,
2013-06-25 00:45:00,70.9,66.2,29.84,South,190,0.0,6.0,85,0.00,,,0.00,WUHU216DAVISVP2,2013-06-25 04:45:00,
2013-06-25 00:46:00,70.9,66.2,29.84,SW,215,2.0,5.0,85,0.00,,,0.00,WUHU216DAVISVP2,2013-06-25 04:46:00,
2013-06-25 00:48:00,70.8,65.8,29.84,WSW,243,0.0,4.0,84,0.00,,,0.00,WUHU216DAVISVP2,2013-06-25 04:48:00,
2013-06-25 00:49:00,70.8,66.1,29.83,WSW,243,0.0,4.0,85,0.00,,,0.00,WUHU216DAVISVP2,2013-06-25 04:49:00,
2013-06-25 00:50:00,70.8,66.1,29.83,WSW,243,0.0,4.0,85,0.00,,,0.00,WUHU216DAVISVP2,2013-06-25 04:50:00,
2013-06-25 00:51:00,70.8,66.4,29.84,WSW,243,0.0,4.0,86,0.00,,,0.00,WUHU216DAVISVP2,2013-06-25 04:51:00,
2013-06-25 00:55:00,70.6,65.9,29.84,WSW,237,0.0,4.0,85,0.00,,,0.00,WUHU216DAVISVP2,2013-06-25 04:55:00,
2013-06-25 00:56:00,70.6,65.9,29.84,SW,229,2.0,4.0,85,0.00,,,0.00,WUHU216DAVISVP2,2013-06-25 04:56:00,
2013-06-25 00:58:00,70.5,65.5,29.84,SW,234,0.0,6.0,84,0.00,,,0.00,WUHU216DAVISVP2,2013-06-25 04:58:00,
2013-06-25 01:00:00,70.5,65.8,29.84,SW,230,3.0,6.0,85,0.00,,,0.00,WUHU216DAVISVP2,2013-06-25 05:00:00,
2013-06-25 01:01:00,70.5,65.8,29.84,SW,230,3.0,6.0,85,0.00,,,0.00,WUHU216DAVISVP2,2013-06-25 05:01:00,
2013-06-25 01:06:00,70.4,65.7,29.84,SW,234,0.0,6.0,85,0.00,,,0.00,WUHU216DAVISVP2,2013-06-25 05:06:00,
2013-06-25 01:07:00,70.4,65.7,29.84,WSW,238,2.0,6.0,85,0.00,,,0.00,WUHU216DAVISVP2,2013-06-25 05:07:00,
2013-06-25 01:09:00,70.4,65.7,29.85,WSW,238,0.0,5.0,85,0.00,,,0.00,WUHU216DAVISVP2,2013-06-25 05:09:00,
2013-06-25 01:10:00,70.3,65.6,29.85,SSW,211,0.0,5.0,85,0.00,,,0.00,WUHU216DAVISVP2,2013-06-25 05:10:00,
2013-06-25 01:11:00,70.3,65.6,29.85,SSW,211,0.0,5.0,85,0.00,,,0.00,WUHU216DAVISVP2,2013-06-25 05:11:00,
2013-06-25 01:14:00,70.3,65.9,29.84,SW,219,2.0,5.0,86,0.00,,,0.00,WUHU216DAVISVP2,2013-06-25 05:14:00,
2013-06-25 01:15:00,70.2,65.8,29.84,SSW,212,2.0,5.0,86,0.00,,,0.00,WUHU216DAVISVP2,2013-06-25 05:15:00,
2013-06-25 01:16:00,70.2,65.8,29.84,SSW,212,2.0,5.0,86,0.00,,,0.00,WUHU216DAVISVP2,2013-06-25 05:16:00,
2013-06-25 01:20:00,70.1,65.7,29.85,SW,236,5.0,7.0,86,0.00,,,0.00,WUHU216DAVISVP2,2013-06-25 05:20:00,
2013-06-25 01:21:00,70.1,65.7,29.85,SW,236,5.0,7.0,86,0.00,,,0.00,WUHU216DAVISVP2,2013-06-25 05:21:00,
2013-06-25 01:23:00,70.1,65.7,29.86,SSW,207,4.0,7.0,86,0.00,,,0.00,WUHU216DAVISVP2,2013-06-25 05:23:00,
2013-06-25 01:26:00,70.1,65.7,29.85,SW,226,5.0,7.0,86,0.00,,,0.00,WUHU216DAVISVP2,2013-06-25 05:26:00,
2013-06-25 01:27:00,70.1,65.7,29.85,SW,226,5.0,7.0,86,0.00,,,0.00,WUHU216DAVISVP2,2013-06-25 05:27:00,
2013-06-25 01:28:00,70.0,65.6,29.86,WSW,248,0.0,7.0,86,0.00,,,0.00,WUHU216DAVISVP2,2013-06-25 05:28:00,
2013-06-25 01:30:00,70.0,65.6,29.86,WSW,244,1.0,7.0,86,0.00,,,0.00,WUHU216DAVISVP2,2013-06-25 05:30:00,
2013-06-25 01:32:00,69.9,65.5,29.86,WSW,243,0.0,7.0,86,0.00,,,0.00,WUHU216DAVISVP2,2013-06-25 05:32:00,
2013-06-25 01:35:00,69.9,65.9,29.86,SW,236,2.0,7.0,87,0.00,,,0.00,WUHU216DAVISVP2,2013-06-25 05:35:00,
2013-06-25 01:36:00,69.9,65.9,29.86,WSW,256,5.0,7.0,87,0.00,,,0.00,WUHU216DAVISVP2,2013-06-25 05:36:00,
2013-06-25 01:37:00,69.9,65.9,29.86,WSW,256,5.0,7.0,87,0.00,,,0.00,WUHU216DAVISVP2,2013-06-25 05:37:00,
2013-06-25 01:39:00,69.8,65.8,29.86,SW,236,4.0,7.0,87,0.00,,,0.00,WUHU216DAVISVP2,2013-06-25 05:39:00,
2013-06-25 01:42:00,69.8,65.8,29.86,SW,225,1.0,7.0,87,0.00,,,0.00,WUHU216DAVISVP2,2013-06-25 05:42:00,
2013-06-25 01:44:00,69.8,65.8,29.86,West,275,6.0,7.0,87,0.00,,,0.00,WUHU216DAVISVP2,2013-06-25 05:44:00,
2013-06-25 01:48:00,69.6,65.6,29.86,SW,217,2.0,10.0,87,0.00,,,0.00,WUHU216DAVISVP2,2013-06-25 05:48:00,
2013-06-25 01:50:00,69.6,65.6,29.86,SW,217,2.0,10.0,87,0.00,,,0.00,WUHU216DAVISVP2,2013-06-25 05:50:00,
2013-06-25 01:52:00,69.6,65.6,29.86,South,180,1.0,10.0,87,0.00,,,0.00,WUHU216DAVISVP2,2013-06-25 05:52:00,
2013-06-25 01:53:00,69.5,65.5,29.86,SW,218,5.0,10.0,87,0.00,,,0.00,WUHU216DAVISVP2,2013-06-25 05:53:00,
2013-06-25 01:55:00,69.5,65.5,29.86,SW,218,5.0,10.0,87,0.00,,,0.00,WUHU216DAVISVP2,2013-06-25 05:55:00,
2013-06-25 01:57:00,69.5,65.1,29.86,West,273,3.0,10.0,86,0.00,,,0.00,WUHU216DAVISVP2,2013-06-25 05:57:00,
2013-06-25 02:00:00,69.5,65.1,29.85,WSW,243,3.0,9.0,86,0.00,,,0.00,WUHU216DAVISVP2,2013-06-25 06:00:00,
2013-06-25 02:02:00,69.7,65.0,29.85,West,265,4.0,9.0,85,0.00,,,0.00,WUHU216DAVISVP2,2013-06-25 06:02:00,
2013-06-25 02:05:00,69.7,64.7,29.85,South,189,1.0,9.0,84,0.00,,,0.00,WUHU216DAVISVP2,2013-06-25 06:05:00,
2013-06-25 02:08:00,69.7,64.7,29.85,WSW,257,2.0,9.0,84,0.00,,,0.00,WUHU216DAVISVP2,2013-06-25 06:08:00,
2013-06-25 02:10:00,69.7,64.7,29.85,WNW,285,2.0,9.0,84,0.00,,,0.00,WUHU216DAVISVP2,2013-06-25 06:10:00,
2013-06-25 02:11:00,69.7,65.0,29.85,West,280,3.0,9.0,85,0.00,,,0.00,WUHU216DAVISVP2,2013-06-25 06:11:00,
2013-06-25 02:14:00,69.6,64.9,29.85,WNW,288,1.0,8.0,85,0.00,,,0.00,WUHU216DAVISVP2,2013-06-25 06:14:00,
2013-06-25 02:15:00,69.6,64.9,29.85,WNW,288,1.0,8.0,85,0.00,,,0.00,WUHU216DAVISVP2,2013-06-25 06:15:00,
2013-06-25 02:16:00,69.5,64.8,29.85,West,271,4.0,8.0,85,0.00,,,0.00,WUHU216DAVISVP2,2013-06-25 06:16:00,
2013-06-25 02:17:00,69.5,64.8,29.85,West,277,1.0,8.0,85,0.00,,,0.00,WUHU216DAVISVP2,2013-06-25 06:17:00,
2013-06-25 02:19:00,69.4,64.7,29.85,West,274,4.0,8.0,85,0.00,,,0.00,WUHU216DAVISVP2,2013-06-25 06:19:00,
2013-06-25 02:20:00,69.4,64.7,29.85,West,274,4.0,8.0,85,0.00,,,0.00,WUHU216DAVISVP2,2013-06-25 06:20:00,
2013-06-25 02:21:00,69.3,64.6,29.85,West,277,2.0,8.0,85,0.00,,,0.00,WUHU216DAVISVP2,2013-06-25 06:21:00,
2013-06-25 02:23:00,69.3,64.6,29.85,West,281,5.0,10.0,85,0.00,,,0.00,WUHU216DAVISVP2,2013-06-25 06:23:00,
2013-06-25 02:25:00,69.2,64.5,29.85,WSW,246,2.0,10.0,85,0.00,,,0.00,WUHU216DAVISVP2,2013-06-25 06:25:00,
2013-06-25 02:26:00,69.2,64.5,29.85,WSW,246,2.0,10.0,85,0.00,,,0.00,WUHU216DAVISVP2,2013-06-25 06:26:00,
2013-06-25 02:27:00,69.2,64.5,29.85,WSW,240,2.0,10.0,85,0.00,,,0.00,WUHU216DAVISVP2,2013-06-25 06:27:00,
2013-06-25 02:29:00,69.1,64.4,29.85,West,265,4.0,10.0,85,0.00,,,0.00,WUHU216DAVISVP2,2013-06-25 06:29:00,
2013-06-25 02:30:00,69.1,64.4,29.85,WNW,286,4.0,10.0,85,0.00,,,0.00,WUHU216DAVISVP2,2013-06-25 06:30:00,
2013-06-25 02:31:00,69.1,64.4,29.85,WNW,286,4.0,10.0,85,0.00,,,0.00,WUHU216DAVISVP2,2013-06-25 06:31:00,
2013-06-25 02:33:00,69.1,64.4,29.85,WSW,250,0.0,7.0,85,0.00,,,0.00,WUHU216DAVISVP2,2013-06-25 06:33:00,
2013-06-25 02:35:00,69.1,64.4,29.85,WSW,256,1.0,7.0,85,0.00,,,0.00,WUHU216DAVISVP2,2013-06-25 06:35:00,
2013-06-25 02:36:00,69.1,64.4,29.85,WSW,256,1.0,7.0,85,0.00,,,0.00,WUHU216DAVISVP2,2013-06-25 06:36:00,
2013-06-25 02:37:00,69.1,64.4,29.85,West,259,4.0,7.0,85,0.00,,,0.00,WUHU216DAVISVP2,2013-06-25 06:37:00,
2013-06-25 02:39:00,69.1,64.4,29.85,WSW,254,0.0,7.0,85,0.00,,,0.00,WUHU216DAVISVP2,2013-06-25 06:39:00,
2013-06-25 02:40:00,69.0,64.3,29.85,West,265,3.0,8.0,85,0.00,,,0.00,WUHU216DAVISVP2,2013-06-25 06:40:00,
2013-06-25 02:41:00,69.0,64.3,29.85,West,265,3.0,8.0,85,0.00,,,0.00,WUHU216DAVISVP2,2013-06-25 06:41:00,
2013-06-25 02:42:00,69.0,64.3,29.85,West,265,3.0,8.0,85,0.00,,,0.00,WUHU216DAVISVP2,2013-06-25 06:42:00,
2013-06-25 02:44:00,69.1,64.4,29.85,WSW,253,4.0,8.0,85,0.00,,,0.00,WUHU216DAVISVP2,2013-06-25 06:44:00,
2013-06-25 02:46:00,69.0,64.3,29.85,WSW,250,0.0,8.0,85,0.00,,,0.00,WUHU216DAVISVP2,2013-06-25 06:46:00,
2013-06-25 02:47:00,69.0,64.3,29.85,WSW,250,0.0,8.0,85,0.00,,,0.00,WUHU216DAVISVP2,2013-06-25 06:47:00,
2013-06-25 02:48:00,69.1,64.4,29.85,WSW,254,2.0,8.0,85,0.00,,,0.00,WUHU216DAVISVP2,2013-06-25 06:48:00,
2013-06-25 02:50:00,69.0,64.3,29.85,WSW,241,6.0,8.0,85,0.00,,,0.00,WUHU216DAVISVP2,2013-06-25 06:50:00,
2013-06-25 02:52:00,69.0,64.3,29.85,WSW,255,5.0,8.0,85,0.00,,,0.00,WUHU216DAVISVP2,2013-06-25 06:52:00,
2013-06-25 02:53:00,69.0,64.3,29.85,WSW,237,0.0,9.0,85,0.00,,,0.00,WUHU216DAVISVP2,2013-06-25 06:53:00,
2013-06-25 02:55:00,69.0,64.7,29.85,SW,235,3.0,9.0,86,0.00,,,0.00,WUHU216DAVISVP2,2013-06-25 06:55:00,
2013-06-25 02:57:00,69.0,64.7,29.85,WSW,252,8.0,9.0,86,0.00,,,0.00,WUHU216DAVISVP2,2013-06-25 06:57:00,
2013-06-25 02:58:00,68.9,64.2,29.85,WSW,250,4.0,9.0,85,0.00,,,0.00,WUHU216DAVISVP2,2013-06-25 06:58:00,
2013-06-25 03:00:00,68.9,64.6,29.85,West,262,6.0,9.0,86,0.00,,,0.00,WUHU216DAVISVP2,2013-06-25 07:00:00,
2013-06-25 03:03:00,68.9,64.6,29.85,SW,227,1.0,8.0,86,0.00,,,0.00,WUHU216DAVISVP2,2013-06-25 07:03:00,
2013-06-25 03:05:00,68.9,64.6,29.86,West,267,1.0,8.0,86,0.00,,,0.00,WUHU216DAVISVP2,2013-06-25 07:05:00,
2013-06-25 03:07:00,68.9,64.5,29.85,WSW,252,1.0,7.0,86,0.00,,,0.00,WUHU216DAVISVP2,2013-06-25 07:07:00,
2013-06-25 03:09:00,68.9,64.5,29.85,WSW,252,1.0,7.0,86,0.00,,,0.00,WUHU216DAVISVP2,2013-06-25 07:09:00,
2013-06-25 03:12:00,68.9,64.5,29.86,SSW,207,2.0,7.0,86,0.00,,,0.00,WUHU216DAVISVP2,2013-06-25 07:12:00,
2013-06-25 03:14:00,68.8,64.4,29.86,SW,227,4.0,8.0,86,0.00,,,0.00,WUHU216DAVISVP2,2013-06-25 07:14:00,
2013-06-25 03:16:00,68.8,64.4,29.86,West,259,1.0,8.0,86,0.00,,,0.00,WUHU216DAVISVP2,2013-06-25 07:16:00,
2013-06-25 03:18:00,68.7,64.3,29.85,West,267,0.0,8.0,86,0.00,,,0.00,WUHU216DAVISVP2,2013-06-25 07:18:00,
2013-06-25 03:19:00,68.7,64.3,29.85,West,267,0.0,8.0,86,0.00,,,0.00,WUHU216DAVISVP2,2013-06-25 07:19:00,
2013-06-25 03:20:00,68.7,64.7,29.86,West,277,4.0,8.0,87,0.00,,,0.00,WUHU216DAVISVP2,2013-06-25 07:20:00,
2013-06-25 03:21:00,68.6,64.6,29.86,West,261,0.0,8.0,87,0.00,,,0.00,WUHU216DAVISVP2,2013-06-25 07:21:00,
2013-06-25 03:24:00,68.6,64.6,29.86,SW,220,4.0,6.0,87,0.00,,,0.00,WUHU216DAVISVP2,2013-06-25 07:24:00,
2013-06-25 03:26:00,68.6,64.6,29.86,West,263,0.0,6.0,87,0.00,,,0.00,WUHU216DAVISVP2,2013-06-25 07:26:00,
2013-06-25 03:29:00,68.5,64.5,29.86,WSW,252,4.0,7.0,87,0.00,,,0.00,WUHU216DAVISVP2,2013-06-25 07:29:00,
2013-06-25 03:31:00,68.5,64.5,29.86,SW,217,1.0,7.0,87,0.00,,,0.00,WUHU216DAVISVP2,2013-06-25 07:31:00,
2013-06-25 03:33:00,68.3,64.3,29.86,SW,217,5.0,8.0,87,0.00,,,0.00,WUHU216DAVISVP2,2013-06-25 07:33:00,
2013-06-25 03:34:00,68.3,64.3,29.86,SW,217,5.0,8.0,87,0.00,,,0.00,WUHU216DAVISVP2,2013-06-25 07:34:00,
2013-06-25 03:35:00,68.3,64.3,29.86,West,267,4.0,8.0,87,0.00,,,0.00,WUHU216DAVISVP2,2013-06-25 07:35:00,
2013-06-25 03:39:00,68.2,64.2,29.86,West,267,7.0,8.0,87,0.00,,,0.00,WUHU216DAVISVP2,2013-06-25 07:39:00,
2013-06-25 03:41:00,68.1,64.1,29.86,West,276,5.0,8.0,87,0.00,,,0.00,WUHU216DAVISVP2,2013-06-25 07:41:00,
2013-06-25 03:43:00,68.1,64.1,29.86,WSW,251,4.0,8.0,87,0.00,,,0.00,WUHU216DAVISVP2,2013-06-25 07:43:00,
2013-06-25 03:45:00,68.1,64.1,29.86,WSW,251,4.0,8.0,87,0.00,,,0.00,WUHU216DAVISVP2,2013-06-25 07:45:00,
2013-06-25 03:47:00,68.0,64.0,29.85,WSW,251,0.0,9.0,87,0.00,,,0.00,WUHU216DAVISVP2,2013-06-25 07:47:00,
2013-06-25 03:49:00,68.0,64.3,29.86,WSW,240,3.0,9.0,88,0.00,,,0.00,WUHU216DAVISVP2,2013-06-25 07:49:00,
2013-06-25 03:50:00,68.0,64.3,29.86,WSW,240,3.0,9.0,88,0.00,,,0.00,WUHU216DAVISVP2,2013-06-25 07:50:00,
2013-06-25 03:55:00,67.9,64.2,29.86,WSW,244,3.0,9.0,88,0.00,,,0.00,WUHU216DAVISVP2,2013-06-25 07:55:00,
2013-06-25 03:56:00,67.9,64.2,29.85,West,262,3.0,7.0,88,0.00,,,0.00,WUHU216DAVISVP2,2013-06-25 07:56:00,
2013-06-25 03:57:00,67.9,64.2,29.85,SW,232,0.0,7.0,88,0.00,,,0.00,WUHU216DAVISVP2,2013-06-25 07:57:00,
2013-06-25 03:59:00,67.8,64.1,29.86,West,259,2.0,7.0,88,0.00,,,0.00,WUHU216DAVISVP2,2013-06-25 07:59:00,
2013-06-25 04:00:00,67.8,64.1,29.86,West,259,2.0,7.0,88,0.00,,,0.00,WUHU216DAVISVP2,2013-06-25 08:00:00,
2013-06-25 04:02:00,67.8,64.1,29.86,WSW,257,7.0,7.0,88,0.00,,,0.00,WUHU216DAVISVP2,2013-06-25 08:02:00,
2013-06-25 04:04:00,67.7,64.0,29.85,West,267,4.0,7.0,88,0.00,,,0.00,WUHU216DAVISVP2,2013-06-25 08:04:00,
2013-06-25 04:05:00,67.7,64.0,29.85,West,267,4.0,7.0,88,0.00,,,0.00,WUHU216DAVISVP2,2013-06-25 08:05:00,
2013-06-25 04:09:00,67.6,63.9,29.86,WSW,257,1.0,8.0,88,0.00,,,0.00,WUHU216DAVISVP2,2013-06-25 08:09:00,
2013-06-25 04:10:00,67.6,63.9,29.86,West,273,8.0,8.0,88,0.00,,,0.00,WUHU216DAVISVP2,2013-06-25 08:10:00,
2013-06-25 04:12:00,67.5,63.8,29.86,West,263,2.0,8.0,88,0.00,,,0.00,WUHU216DAVISVP2,2013-06-25 08:12:00,
2013-06-25 04:15:00,67.5,64.1,29.86,West,277,4.0,8.0,89,0.00,,,0.00,WUHU216DAVISVP2,2013-06-25 08:15:00,
2013-06-25 04:16:00,67.5,64.1,29.86,West,269,2.0,8.0,89,0.00,,,0.00,WUHU216DAVISVP2,2013-06-25 08:16:00,
2013-06-25 04:18:00,67.4,64.0,29.86,SSW,208,2.0,8.0,89,0.00,,,0.00,WUHU216DAVISVP2,2013-06-25 08:18:00,
2013-06-25 04:21:00,67.4,64.0,29.86,West,260,3.0,8.0,89,0.00,,,0.00,WUHU216DAVISVP2,2013-06-25 08:21:00,
2013-06-25 04:23:00,67.4,64.0,29.85,WSW,254,1.0,6.0,89,0.00,,,0.00,WUHU216DAVISVP2,2013-06-25 08:23:00,
2013-06-25 04:24:00,67.3,63.9,29.86,SW,227,0.0,6.0,89,0.00,,,0.00,WUHU216DAVISVP2,2013-06-25 08:24:00,
2013-06-25 04:26:00,67.3,63.9,29.86,SW,227,0.0,6.0,89,0.00,,,0.00,WUHU216DAVISVP2,2013-06-25 08:26:00,
2013-06-25 04:28:00,67.3,63.9,29.86,West,263,5.0,7.0,89,0.00,,,0.00,WUHU216DAVISVP2,2013-06-25 08:28:00,
2013-06-25 04:29:00,67.3,63.9,29.86,WNW,297,6.0,7.0,89,0.00,,,0.00,WUHU216DAVISVP2,2013-06-25 08:29:00,
2013-06-25 04:31:00,67.3,63.9,29.86,West,267,1.0,7.0,89,0.00,,,0.00,WUHU216DAVISVP2,2013-06-25 08:31:00,
2013-06-25 04:33:00,67.3,63.9,29.86,West,269,9.0,10.0,89,0.00,,,0.00,WUHU216DAVISVP2,2013-06-25 08:33:00,
2013-06-25 04:36:00,67.2,63.8,29.86,WNW,290,2.0,10.0,89,0.00,,,0.00,WUHU216DAVISVP2,2013-06-25 08:36:00,
2013-06-25 04:38:00,67.2,63.8,29.86,West,268,5.0,10.0,89,0.00,,,0.00,WUHU216DAVISVP2,2013-06-25 08:38:00,
2013-06-25 04:40:00,67.2,63.8,29.86,West,261,6.0,10.0,89,0.00,,,0.00,WUHU216DAVISVP2,2013-06-25 08:40:00,
2013-06-25 04:41:00,67.2,63.8,29.86,West,261,6.0,10.0,89,0.00,,,0.00,WUHU216DAVISVP2,2013-06-25 08:41:00,
2013-06-25 04:43:00,67.2,63.8,29.86,West,274,2.0,9.0,89,0.00,,,0.00,WUHU216DAVISVP2,2013-06-25 08:43:00,
2013-06-25 04:45:00,67.2,63.8,29.86,West,276,5.0,9.0,89,0.00,,,0.00,WUHU216DAVISVP2,2013-06-25 08:45:00,
2013-06-25 04:46:00,67.2,63.8,29.86,West,276,5.0,9.0,89,0.00,,,0.00,WUHU216DAVISVP2,2013-06-25 08:46:00,
2013-06-25 04:48:00,67.3,63.9,29.85,West,279,2.0,8.0,89,0.00,,,0.00,WUHU216DAVISVP2,2013-06-25 08:48:00,
2013-06-25 04:49:00,67.3,63.9,29.86,West,264,4.0,8.0,89,0.00,,,0.00,WUHU216DAVISVP2,2013-06-25 08:49:00,
2013-06-25 04:52:00,67.3,63.9,29.85,West,261,0.0,8.0,89,0.00,,,0.00,WUHU216DAVISVP2,2013-06-25 08:52:00,
2013-06-25 04:53:00,67.3,63.9,29.85,West,260,1.0,8.0,89,0.00,,,0.00,WUHU216DAVISVP2,2013-06-25 08:53:00,
2013-06-25 04:56:00,67.4,64.0,29.85,WSW,253,4.0,8.0,89,0.00,,,0.00,WUHU216DAVISVP2,2013-06-25 08:56:00,
2013-06-25 04:57:00,67.4,64.0,29.85,WSW,253,4.0,8.0,89,0.00,,,0.00,WUHU216DAVISVP2,2013-06-25 08:57:00,
2013-06-25 04:59:00,67.4,64.0,29.85,WSW,256,2.0,8.0,89,0.00,,,0.00,WUHU216DAVISVP2,2013-06-25 08:59:00,
2013-06-25 05:00:00,67.4,64.0,29.85,West,259,1.0,5.0,89,0.00,,,0.00,WUHU216DAVISVP2,2013-06-25 09:00:00,
2013-06-25 05:02:00,67.4,64.0,29.85,West,270,1.0,5.0,89,0.00,,,0.00,WUHU216DAVISVP2,2013-06-25 09:02:00,
2013-06-25 05:03:00,67.4,64.0,29.85,West,270,1.0,5.0,89,0.00,,,0.00,WUHU216DAVISVP2,2013-06-25 09:03:00,
2013-06-25 05:05:00,67.4,64.0,29.85,WNW,288,1.0,5.0,89,0.00,,,0.00,WUHU216DAVISVP2,2013-06-25 09:05:00,
2013-06-25 05:07:00,67.3,63.9,29.85,WSW,248,3.0,5.0,89,0.00,,,0.00,WUHU216DAVISVP2,2013-06-25 09:07:00,
2013-06-25 05:08:00,67.3,63.9,29.85,West,261,0.0,5.0,89,0.00,,,0.00,WUHU216DAVISVP2,2013-06-25 09:08:00,
2013-06-25 05:12:00,67.3,63.9,29.85,West,261,0.0,5.0,89,0.00,,,0.00,WUHU216DAVISVP2,2013-06-25 09:12:00,
2013-06-25 05:14:00,67.3,63.9,29.85,West,272,4.0,5.0,89,0.00,,,0.00,WUHU216DAVISVP2,2013-06-25 09:14:00,
2013-06-25 05:17:00,67.3,63.9,29.85,WSW,252,0.0,5.0,89,0.00,,,0.00,WUHU216DAVISVP2,2013-06-25 09:17:00,
2013-06-25 05:18:00,67.2,63.8,29.85,West,261,3.0,5.0,89,0.00,,,0.00,WUHU216DAVISVP2,2013-06-25 09:18:00,
2013-06-25 05:20:00,67.2,63.8,29.85,West,273,4.0,5.0,89,0.00,,,0.00,WUHU216DAVISVP2,2013-06-25 09:20:00,
2013-06-25 05:23:00,67.2,63.8,29.85,WSW,246,0.0,5.0,89,0.00,,,0.00,WUHU216DAVISVP2,2013-06-25 09:23:00,
2013-06-25 05:26:00,67.2,63.8,29.85,SSW,212,2.0,6.0,89,0.00,,,0.00,WUHU216DAVISVP2,2013-06-25 09:26:00,
2013-06-25 05:28:00,67.2,63.8,29.85,SW,221,0.0,6.0,89,0.00,,,0.00,WUHU216DAVISVP2,2013-06-25 09:28:00,
2013-06-25 05:29:00,67.2,63.8,29.85,West,260,0.0,6.0,89,0.00,,,0.00,WUHU216DAVISVP2,2013-06-25 09:29:00,
2013-06-25 05:33:00,67.2,63.8,29.86,WSW,253,2.0,6.0,89,0.00,,,0.00,WUHU216DAVISVP2,2013-06-25 09:33:00,
2013-06-25 05:34:00,67.2,63.8,29.86,West,279,0.0,6.0,89,0.00,,,0.00,WUHU216DAVISVP2,2013-06-25 09:34:00,
2013-06-25 05:36:00,67.2,63.8,29.86,West,273,2.0,6.0,89,0.00,,,0.00,WUHU216DAVISVP2,2013-06-25 09:36:00,
2013-06-25 05:38:00,67.2,64.1,29.86,West,273,2.0,6.0,90,0.00,,,0.00,WUHU216DAVISVP2,2013-06-25 09:38:00,
2013-06-25 05:40:00,67.2,64.1,29.86,SW,225,1.0,6.0,90,0.00,,,0.00,WUHU216DAVISVP2,2013-06-25 09:40:00,
2013-06-25 05:43:00,67.2,64.1,29.86,WSW,257,1.0,6.0,90,0.00,,,0.00,WUHU216DAVISVP2,2013-06-25 09:43:00,
2013-06-25 05:44:00,67.2,64.1,29.86,WSW,256,0.0,5.0,90,0.00,,,0.00,WUHU216DAVISVP2,2013-06-25 09:44:00,
2013-06-25 05:48:00,67.2,64.1,29.86,South,180,0.0,5.0,90,0.00,,,0.00,WUHU216DAVISVP2,2013-06-25 09:48:00,
2013-06-25 05:52:00,67.2,64.1,29.86,WSW,251,0.0,4.0,90,0.00,,,0.00,WUHU216DAVISVP2,2013-06-25 09:52:00,
2013-06-25 05:53:00,67.2,64.1,29.86,WSW,251,0.0,4.0,90,0.00,,,0.00,WUHU216DAVISVP2,2013-06-25 09:53:00,
2013-06-25 05:55:00,67.2,64.1,29.86,West,261,0.0,4.0,90,0.00,,,0.00,WUHU216DAVISVP2,2013-06-25 09:55:00,
2013-06-25 05:58:00,67.2,64.1,29.86,SSW,192,1.0,5.0,90,0.00,,,0.00,WUHU216DAVISVP2,2013-06-25 09:58:00,
2013-06-25 05:59:00,67.2,64.1,29.86,SSW,209,0.0,5.0,90,0.00,,,0.00,WUHU216DAVISVP2,2013-06-25 09:59:00,
2013-06-25 06:00:00,67.2,64.1,29.86,SSW,212,0.0,5.0,90,0.00,,,0.00,WUHU216DAVISVP2,2013-06-25 10:00:00,
2013-06-25 06:02:00,67.2,64.1,29.86,SW,227,1.0,5.0,90,0.00,,,0.00,WUHU216DAVISVP2,2013-06-25 10:02:00,
2013-06-25 06:04:00,67.2,64.1,29.86,SW,227,1.0,5.0,90,0.00,,,0.00,WUHU216DAVISVP2,2013-06-25 10:04:00,
2013-06-25 06:05:00,67.3,64.2,29.86,WSW,242,1.0,5.0,90,0.00,,,0.00,WUHU216DAVISVP2,2013-06-25 10:05:00,
2013-06-25 06:07:00,67.3,64.2,29.86,SW,217,0.0,5.0,90,0.00,,,0.00,WUHU216DAVISVP2,2013-06-25 10:07:00,
2013-06-25 06:09:00,67.3,64.2,29.86,SSW,206,0.0,5.0,90,0.00,,,0.00,WUHU216DAVISVP2,2013-06-25 10:09:00,
2013-06-25 06:12:00,67.3,64.2,29.86,SSW,195,4.0,5.0,90,0.00,,,0.00,WUHU216DAVISVP2,2013-06-25 10:12:00,
2013-06-25 06:13:00,67.3,64.2,29.86,SW,225,1.0,5.0,90,0.00,,,0.00,WUHU216DAVISVP2,2013-06-25 10:13:00,
2013-06-25 06:14:00,67.3,64.2,29.86,SW,225,1.0,5.0,90,0.00,,,0.00,WUHU216DAVISVP2,2013-06-25 10:14:00,
2013-06-25 06:15:00,67.4,64.3,29.86,SW,215,0.0,6.0,90,0.00,,,0.00,WUHU216DAVISVP2,2013-06-25 10:15:00,
2013-06-25 06:19:00,67.4,64.7,29.86,WSW,248,2.0,6.0,91,0.00,,,0.00,WUHU216DAVISVP2,2013-06-25 10:19:00,
2013-06-25 06:21:00,67.4,64.7,29.87,WSW,254,1.0,6.0,91,0.00,,,0.00,WUHU216DAVISVP2,2013-06-25 10:21:00,
2013-06-25 06:24:00,67.4,64.7,29.87,SW,219,2.0,7.0,91,0.00,,,0.00,WUHU216DAVISVP2,2013-06-25 10:24:00,
2013-06-25 06:25:00,67.4,64.7,29.87,SW,219,2.0,7.0,91,0.00,,,0.00,WUHU216DAVISVP2,2013-06-25 10:25:00,
2013-06-25 06:28:00,67.5,64.8,29.87,SW,234,0.0,7.0,91,0.00,,,0.00,WUHU216DAVISVP2,2013-06-25 10:28:00,
2013-06-25 06:30:00,67.5,64.8,29.87,SSW,203,0.0,7.0,91,0.00,,,0.00,WUHU216DAVISVP2,2013-06-25 10:30:00,
2013-06-25 06:32:00,67.5,65.1,29.87,SSW,210,4.0,7.0,92,0.01,,,0.01,WUHU216DAVISVP2,2013-06-25 10:32:00,
2013-06-25 06:34:00,67.5,65.1,29.87,WSW,246,0.0,7.0,92,0.01,,,0.01,WUHU216DAVISVP2,2013-06-25 10:34:00,
2013-06-25 06:35:00,67.5,65.1,29.87,WSW,246,0.0,7.0,92,0.01,,,0.01,WUHU216DAVISVP2,2013-06-25 10:35:00,
2013-06-25 06:37:00,67.6,65.2,29.87,SW,227,1.0,6.0,92,0.01,,,0.01,WUHU216DAVISVP2,2013-06-25 10:37:00,
2013-06-25 06:39:00,67.6,65.2,29.87,WSW,246,4.0,6.0,92,0.01,,,0.01,WUHU216DAVISVP2,2013-06-25 10:39:00,
2013-06-25 06:40:00,67.6,65.2,29.87,WSW,246,4.0,6.0,92,0.01,,,0.01,WUHU216DAVISVP2,2013-06-25 10:40:00,
2013-06-25 06:42:00,67.6,65.2,29.86,WSW,250,5.0,6.0,92,0.01,,,0.01,WUHU216DAVISVP2,2013-06-25 10:42:00,
2013-06-25 06:44:00,67.7,65.3,29.87,WSW,257,1.0,6.0,92,0.01,,,0.01,WUHU216DAVISVP2,2013-06-25 10:44:00,
2013-06-25 06:45:00,67.7,65.3,29.87,WSW,257,1.0,6.0,92,0.01,,,0.01,WUHU216DAVISVP2,2013-06-25 10:45:00,
2013-06-25 06:46:00,67.7,65.3,29.87,WNW,282,1.0,7.0,92,0.01,,,0.01,WUHU216DAVISVP2,2013-06-25 10:46:00,
2013-06-25 06:47:00,67.6,65.2,29.87,West,280,0.0,7.0,92,0.01,,,0.01,WUHU216DAVISVP2,2013-06-25 10:47:00,
2013-06-25 06:50:00,67.7,65.3,29.87,West,280,0.0,7.0,92,0.02,,,0.02,WUHU216DAVISVP2,2013-06-25 10:50:00,
2013-06-25 06:55:00,67.7,65.6,29.87,West,279,1.0,3.0,93,0.02,,,0.02,WUHU216DAVISVP2,2013-06-25 10:55:00,
2013-06-25 06:57:00,67.7,65.6,29.87,West,279,2.0,3.0,93,0.02,,,0.02,WUHU216DAVISVP2,2013-06-25 10:57:00,
2013-06-25 06:58:00,67.7,65.6,29.87,WNW,292,4.0,4.0,93,0.02,,,0.02,WUHU216DAVISVP2,2013-06-25 10:58:00,
2013-06-25 07:00:00,67.7,65.6,29.87,WNW,293,1.0,4.0,93,0.02,,,0.02,WUHU216DAVISVP2,2013-06-25 11:00:00,
2013-06-25 07:01:00,67.7,65.6,29.87,WNW,293,1.0,4.0,93,0.02,,,0.02,WUHU216DAVISVP2,2013-06-25 11:01:00,
2013-06-25 07:02:00,67.6,65.5,29.88,WNW,293,0.0,4.0,93,0.02,,,0.02,WUHU216DAVISVP2,2013-06-25 11:02:00,
2013-06-25 07:04:00,67.6,65.5,29.88,WNW,293,0.0,4.0,93,0.02,,,0.02,WUHU216DAVISVP2,2013-06-25 11:04:00,
2013-06-25 07:05:00,67.6,65.5,29.88,WNW,293,1.0,4.0,93,0.02,,,0.02,WUHU216DAVISVP2,2013-06-25 11:05:00,
2013-06-25 07:06:00,67.6,65.5,29.88,WNW,293,1.0,4.0,93,0.02,,,0.02,WUHU216DAVISVP2,2013-06-25 11:06:00,
2013-06-25 07:08:00,67.6,65.5,29.88,WNW,292,0.0,4.0,93,0.02,,,0.02,WUHU216DAVISVP2,2013-06-25 11:08:00,
2013-06-25 07:10:00,67.6,65.5,29.88,WNW,292,0.0,2.0,93,0.02,,,0.02,WUHU216DAVISVP2,2013-06-25 11:10:00,
2013-06-25 07:11:00,67.6,65.5,29.88,WNW,292,0.0,2.0,93,0.02,,,0.02,WUHU216DAVISVP2,2013-06-25 11:11:00,
2013-06-25 07:12:00,67.6,65.5,29.88,WNW,292,0.0,3.0,93,0.02,,,0.02,WUHU216DAVISVP2,2013-06-25 11:12:00,
2013-06-25 07:14:00,67.6,65.8,29.88,WNW,292,1.0,3.0,94,0.02,,,0.02,WUHU216DAVISVP2,2013-06-25 11:14:00,
2013-06-25 07:15:00,67.6,65.8,29.88,WNW,292,2.0,4.0,94,0.02,,,0.02,WUHU216DAVISVP2,2013-06-25 11:15:00,
2013-06-25 07:16:00,67.6,65.8,29.88,WNW,292,2.0,4.0,94,0.02,,,0.02,WUHU216DAVISVP2,2013-06-25 11:16:00,
2013-06-25 07:18:00,67.6,65.8,29.89,WNW,292,2.0,4.0,94,0.02,,,0.02,WUHU216DAVISVP2,2013-06-25 11:18:00,
2013-06-25 07:19:00,67.6,65.8,29.89,WNW,292,0.0,4.0,94,0.02,,,0.02,WUHU216DAVISVP2,2013-06-25 11:19:00,
2013-06-25 07:21:00,67.6,65.8,29.89,WNW,292,0.0,4.0,94,0.02,,,0.02,WUHU216DAVISVP2,2013-06-25 11:21:00,
2013-06-25 07:22:00,67.6,65.8,29.89,WNW,290,4.0,4.0,94,0.02,,,0.02,WUHU216DAVISVP2,2013-06-25 11:22:00,
2013-06-25 07:23:00,67.6,65.8,29.89,WNW,292,0.0,5.0,94,0.02,,,0.02,WUHU216DAVISVP2,2013-06-25 11:23:00,
2013-06-25 07:25:00,67.6,65.8,29.90,West,263,0.0,5.0,94,0.02,,,0.02,WUHU216DAVISVP2,2013-06-25 11:25:00,
2013-06-25 07:27:00,67.7,65.9,29.90,West,260,5.0,6.0,94,0.02,,,0.02,WUHU216DAVISVP2,2013-06-25 11:27:00,
2013-06-25 07:28:00,67.7,65.9,29.90,WNW,284,1.0,6.0,94,0.02,,,0.02,WUHU216DAVISVP2,2013-06-25 11:28:00,
2013-06-25 07:29:00,67.7,65.9,29.91,WNW,282,3.0,7.0,94,0.02,,,0.02,WUHU216DAVISVP2,2013-06-25 11:29:00,
2013-06-25 07:31:00,67.8,66.3,29.91,WNW,294,5.0,7.0,95,0.01,,,0.02,WUHU216DAVISVP2,2013-06-25 11:31:00,
2013-06-25 07:32:00,67.8,66.3,29.91,WNW,294,5.0,7.0,95,0.01,,,0.02,WUHU216DAVISVP2,2013-06-25 11:32:00,
2013-06-25 07:36:00,68.1,66.6,29.93,NNW,338,12.0,14.0,95,0.01,,,0.02,WUHU216DAVISVP2,2013-06-25 11:36:00,
2013-06-25 07:37:00,68.1,66.6,29.93,NNW,338,12.0,14.0,95,0.01,,,0.02,WUHU216DAVISVP2,2013-06-25 11:37:00,
2013-06-25 07:38:00,68.1,66.3,29.94,NW,309,20.0,23.0,94,0.01,,,0.02,WUHU216DAVISVP2,2013-06-25 11:38:00,
2013-06-25 07:40:00,67.9,65.5,29.95,NNW,346,8.0,23.0,92,0.04,,,0.05,WUHU216DAVISVP2,2013-06-25 11:40:00,
2013-06-25 07:42:00,67.6,64.9,29.95,North,5,13.0,25.0,91,0.07,,,0.08,WUHU216DAVISVP2,2013-06-25 11:42:00,
2013-06-25 07:43:00,67.4,64.7,29.95,NNW,333,12.0,25.0,91,0.08,,,0.10,WUHU216DAVISVP2,2013-06-25 11:43:00,
2013-06-25 07:46:00,66.6,64.2,29.92,NNW,337,10.0,25.0,92,0.13,,,0.14,WUHU216DAVISVP2,2013-06-25 11:46:00,
2013-06-25 07:47:00,66.6,64.2,29.92,NNW,337,10.0,25.0,92,0.13,,,0.14,WUHU216DAVISVP2,2013-06-25 11:47:00,
2013-06-25 07:50:00,66.1,64.0,29.90,NE,48,4.0,25.0,93,0.18,,,0.20,WUHU216DAVISVP2,2013-06-25 11:50:00,
2013-06-25 07:51:00,66.1,64.0,29.89,NW,322,6.0,16.0,93,0.19,,,0.21,WUHU216DAVISVP2,2013-06-25 11:51:00,
2013-06-25 07:53:00,66.1,64.0,29.89,NW,322,6.0,16.0,93,0.19,,,0.21,WUHU216DAVISVP2,2013-06-25 11:53:00,
2013-06-25 07:56:00,66.1,64.3,29.90,West,279,0.0,10.0,94,0.20,,,0.22,WUHU216DAVISVP2,2013-06-25 11:56:00,
2013-06-25 07:58:00,66.1,64.3,29.90,West,279,0.0,10.0,94,0.20,,,0.22,WUHU216DAVISVP2,2013-06-25 11:58:00,
2013-06-25 08:00:00,66.1,64.3,29.92,West,277,2.0,10.0,94,0.20,,,0.22,WUHU216DAVISVP2,2013-06-25 12:00:00,
2013-06-25 08:01:00,66.1,64.3,29.92,West,277,0.0,6.0,94,0.20,,,0.22,WUHU216DAVISVP2,2013-06-25 12:01:00,
2013-06-25 08:03:00,66.1,64.3,29.92,West,277,0.0,6.0,94,0.20,,,0.22,WUHU216DAVISVP2,2013-06-25 12:03:00,
2013-06-25 08:05:00,66.1,64.3,29.91,West,277,2.0,5.0,94,0.20,,,0.22,WUHU216DAVISVP2,2013-06-25 12:05:00,
2013-06-25 08:07:00,66.1,64.3,29.91,West,277,0.0,5.0,94,0.20,,,0.22,WUHU216DAVISVP2,2013-06-25 12:07:00,
2013-06-25 08:08:00,66.1,64.3,29.91,West,277,0.0,5.0,94,0.20,,,0.22,WUHU216DAVISVP2,2013-06-25 12:08:00,
2013-06-25 08:10:00,66.0,64.2,29.90,West,277,1.0,2.0,94,0.20,,,0.22,WUHU216DAVISVP2,2013-06-25 12:10:00,
2013-06-25 08:13:00,66.0,64.2,29.90,SSW,211,4.0,4.0,94,0.20,,,0.22,WUHU216DAVISVP2,2013-06-25 12:13:00,
2013-06-25 08:15:00,66.0,64.2,29.90,SSW,211,0.0,4.0,94,0.20,,,0.22,WUHU216DAVISVP2,2013-06-25 12:15:00,
2013-06-25 08:17:00,66.0,64.2,29.89,SSE,153,0.0,4.0,94,0.20,,,0.22,WUHU216DAVISVP2,2013-06-25 12:17:00,
2013-06-25 08:18:00,66.0,64.2,29.89,SSE,153,0.0,4.0,94,0.20,,,0.22,WUHU216DAVISVP2,2013-06-25 12:18:00,
2013-06-25 08:21:00,66.1,64.6,29.89,South,169,0.0,4.0,95,0.20,,,0.22,WUHU216DAVISVP2,2013-06-25 12:21:00,
2013-06-25 08:23:00,66.1,64.6,29.89,South,169,0.0,4.0,95,0.20,,,0.22,WUHU216DAVISVP2,2013-06-25 12:23:00,
2013-06-25 08:24:00,66.2,64.7,29.89,South,169,0.0,2.0,95,0.20,,,0.22,WUHU216DAVISVP2,2013-06-25 12:24:00,
2013-06-25 08:26:00,66.2,64.7,29.89,South,169,0.0,2.0,95,0.20,,,0.22,WUHU216DAVISVP2,2013-06-25 12:26:00,
2013-06-25 08:28:00,66.3,64.8,29.89,South,169,0.0,1.0,95,0.20,,,0.22,WUHU216DAVISVP2,2013-06-25 12:28:00,
2013-06-25 08:30:00,66.3,64.8,29.89,South,169,0.0,0.0,95,0.20,,,0.22,WUHU216DAVISVP2,2013-06-25 12:30:00,
2013-06-25 08:31:00,66.3,64.8,29.89,South,169,0.0,1.0,95,0.20,,,0.22,WUHU216DAVISVP2,2013-06-25 12:31:00,
2013-06-25 08:33:00,66.4,64.9,29.89,South,169,0.0,1.0,95,0.20,,,0.22,WUHU216DAVISVP2,2013-06-25 12:33:00,
2013-06-25 08:35:00,66.5,65.0,29.89,South,169,0.0,1.0,95,0.20,,,0.22,WUHU216DAVISVP2,2013-06-25 12:35:00,
2013-06-25 08:37:00,66.6,65.1,29.88,South,169,0.0,1.0,95,0.20,,,0.22,WUHU216DAVISVP2,2013-06-25 12:37:00,
2013-06-25 08:38:00,66.6,65.1,29.88,South,169,0.0,1.0,95,0.20,,,0.22,WUHU216DAVISVP2,2013-06-25 12:38:00,
2013-06-25 08:39:00,66.6,65.1,29.88,South,169,0.0,1.0,95,0.20,,,0.22,WUHU216DAVISVP2,2013-06-25 12:39:00,
2013-06-25 08:40:00,66.8,65.3,29.88,South,169,0.0,1.0,95,0.16,,,0.22,WUHU216DAVISVP2,2013-06-25 12:40:00,
2013-06-25 08:44:00,66.9,65.7,29.88,South,175,1.0,4.0,96,0.11,,,0.22,WUHU216DAVISVP2,2013-06-25 12:44:00,
2013-06-25 08:45:00,67.0,65.8,29.89,South,179,0.0,4.0,96,0.09,,,0.22,WUHU216DAVISVP2,2013-06-25 12:45:00,
2013-06-25 08:47:00,67.1,65.9,29.89,South,179,0.0,4.0,96,0.07,,,0.22,WUHU216DAVISVP2,2013-06-25 12:47:00,
2013-06-25 08:49:00,67.1,65.9,29.89,South,179,0.0,4.0,96,0.04,,,0.22,WUHU216DAVISVP2,2013-06-25 12:49:00,
2013-06-25 08:50:00,67.3,66.1,29.89,South,179,0.0,4.0,96,0.02,,,0.22,WUHU216DAVISVP2,2013-06-25 12:50:00,
2013-06-25 08:52:00,67.4,66.2,29.89,South,179,0.0,4.0,96,0.01,,,0.22,WUHU216DAVISVP2,2013-06-25 12:52:00,
2013-06-25 08:53:00,67.5,66.3,29.89,South,179,0.0,3.0,96,0.01,,,0.22,WUHU216DAVISVP2,2013-06-25 12:53:00,
2013-06-25 08:54:00,67.5,66.3,29.89,South,179,0.0,3.0,96,0.01,,,0.22,WUHU216DAVISVP2,2013-06-25 12:54:00,
2013-06-25 08:55:00,67.7,66.5,29.88,South,182,0.0,2.0,96,0.01,,,0.22,WUHU216DAVISVP2,2013-06-25 12:55:00,
2013-06-25 08:57:00,67.7,66.5,29.88,WSW,248,0.0,4.0,96,0.00,,,0.22,WUHU216DAVISVP2,2013-06-25 12:57:00,
2013-06-25 08:59:00,67.9,66.7,29.88,WSW,248,0.0,4.0,96,0.00,,,0.22,WUHU216DAVISVP2,2013-06-25 12:59:00,
2013-06-25 09:00:00,68.0,66.8,29.89,WSW,248,2.0,4.0,96,0.00,,,0.22,WUHU216DAVISVP2,2013-06-25 13:00:00,
2013-06-25 09:03:00,68.2,67.0,29.89,WSW,248,1.0,4.0,96,0.00,,,0.22,WUHU216DAVISVP2,2013-06-25 13:03:00,
2013-06-25 09:05:00,68.3,67.1,29.89,WSW,248,0.0,4.0,96,0.00,,,0.22,WUHU216DAVISVP2,2013-06-25 13:05:00,
2013-06-25 09:06:00,68.3,67.1,29.89,WSW,248,0.0,4.0,96,0.00,,,0.22,WUHU216DAVISVP2,2013-06-25 13:06:00,
2013-06-25 09:11:00,68.6,67.4,29.89,WSW,248,0.0,4.0,96,0.00,,,0.22,WUHU216DAVISVP2,2013-06-25 13:11:00,
2013-06-25 09:12:00,68.8,67.6,29.89,WSW,248,1.0,4.0,96,0.00,,,0.22,WUHU216DAVISVP2,2013-06-25 13:12:00,
2013-06-25 09:14:00,68.8,67.3,29.89,WSW,248,1.0,5.0,95,0.00,,,0.22,WUHU216DAVISVP2,2013-06-25 13:14:00,
2013-06-25 09:16:00,68.9,67.7,29.89,SSW,211,5.0,7.0,96,0.00,,,0.22,WUHU216DAVISVP2,2013-06-25 13:16:00,
2013-06-25 09:17:00,69.0,67.5,29.89,SW,231,4.0,7.0,95,0.00,,,0.22,WUHU216DAVISVP2,2013-06-25 13:17:00,
2013-06-25 09:20:00,69.1,67.6,29.89,SW,231,1.0,7.0,95,0.00,,,0.22,WUHU216DAVISVP2,2013-06-25 13:20:00,
2013-06-25 09:21:00,69.1,67.6,29.89,SW,231,1.0,7.0,95,0.00,,,0.22,WUHU216DAVISVP2,2013-06-25 13:21:00,
2013-06-25 09:25:00,69.3,67.8,29.89,West,262,5.0,7.0,95,0.00,,,0.22,WUHU216DAVISVP2,2013-06-25 13:25:00,
2013-06-25 09:26:00,69.3,67.8,29.89,West,262,5.0,7.0,95,0.00,,,0.22,WUHU216DAVISVP2,2013-06-25 13:26:00,
2013-06-25 09:27:00,69.4,67.9,29.89,West,262,0.0,7.0,95,0.00,,,0.22,WUHU216DAVISVP2,2013-06-25 13:27:00,
2013-06-25 09:28:00,69.5,68.0,29.89,SSE,159,1.0,7.0,95,0.00,,,0.22,WUHU216DAVISVP2,2013-06-25 13:28:00,
2013-06-25 09:31:00,69.7,68.2,29.90,WSW,237,1.0,7.0,95,0.00,,,0.22,WUHU216DAVISVP2,2013-06-25 13:31:00,
2013-06-25 09:33:00,69.7,68.2,29.90,SW,225,2.0,5.0,95,0.00,,,0.22,WUHU216DAVISVP2,2013-06-25 13:33:00,
2013-06-25 09:35:00,69.8,68.3,29.90,WSW,239,2.0,6.0,95,0.00,,,0.22,WUHU216DAVISVP2,2013-06-25 13:35:00,
2013-06-25 09:36:00,69.8,68.3,29.90,West,277,3.0,6.0,95,0.00,,,0.22,WUHU216DAVISVP2,2013-06-25 13:36:00,
2013-06-25 09:37:00,69.9,68.4,29.90,West,267,4.0,6.0,95,0.00,,,0.22,WUHU216DAVISVP2,2013-06-25 13:37:00,
2013-06-25 09:39:00,69.8,68.0,29.90,WSW,255,4.0,8.0,94,0.00,,,0.22,WUHU216DAVISVP2,2013-06-25 13:39:00,
2013-06-25 09:41:00,69.8,68.0,29.90,West,263,4.0,8.0,94,0.00,,,0.22,WUHU216DAVISVP2,2013-06-25 13:41:00,
2013-06-25 09:42:00,69.8,68.0,29.90,West,263,4.0,8.0,94,0.00,,,0.22,WUHU216DAVISVP2,2013-06-25 13:42:00,
2013-06-25 09:43:00,69.9,67.8,29.91,West,264,6.0,8.0,93,0.00,,,0.22,WUHU216DAVISVP2,2013-06-25 13:43:00,
2013-06-25 09:45:00,69.9,67.8,29.91,West,269,5.0,8.0,93,0.00,,,0.22,WUHU216DAVISVP2,2013-06-25 13:45:00,
2013-06-25 09:47:00,69.9,67.8,29.91,West,269,5.0,8.0,93,0.00,,,0.22,WUHU216DAVISVP2,2013-06-25 13:47:00,
2013-06-25 09:50:00,69.9,67.8,29.91,West,278,6.0,8.0,93,0.00,,,0.22,WUHU216DAVISVP2,2013-06-25 13:50:00,
2013-06-25 09:51:00,70.0,67.9,29.91,WSW,244,2.0,8.0,93,0.00,,,0.22,WUHU216DAVISVP2,2013-06-25 13:51:00,
2013-06-25 09:52:00,70.0,67.9,29.91,WSW,244,2.0,8.0,93,0.00,,,0.22,WUHU216DAVISVP2,2013-06-25 13:52:00,
2013-06-25 09:53:00,70.1,68.0,29.91,West,261,2.0,8.0,93,0.00,,,0.22,WUHU216DAVISVP2,2013-06-25 13:53:00,
2013-06-25 09:56:00,70.1,67.7,29.91,WNW,288,6.0,8.0,92,0.00,,,0.22,WUHU216DAVISVP2,2013-06-25 13:56:00,
2013-06-25 09:57:00,70.1,67.7,29.91,WNW,288,6.0,8.0,92,0.00,,,0.22,WUHU216DAVISVP2,2013-06-25 13:57:00,
2013-06-25 09:59:00,70.2,68.1,29.91,SW,221,3.0,8.0,93,0.00,,,0.22,WUHU216DAVISVP2,2013-06-25 13:59:00,
2013-06-25 10:01:00,70.3,67.9,29.91,WSW,258,1.0,8.0,92,0.00,,,0.22,WUHU216DAVISVP2,2013-06-25 14:01:00,
2013-06-25 10:02:00,70.3,67.9,29.91,WSW,258,1.0,8.0,92,0.00,,,0.22,WUHU216DAVISVP2,2013-06-25 14:02:00,
2013-06-25 10:05:00,70.5,68.3,29.90,SW,229,1.0,7.0,93,0.00,,,0.22,WUHU216DAVISVP2,2013-06-25 14:05:00,
2013-06-25 10:07:00,70.5,68.0,29.90,WSW,246,3.0,8.0,92,0.00,,,0.22,WUHU216DAVISVP2,2013-06-25 14:07:00,
2013-06-25 10:11:00,70.8,68.0,29.89,WSW,245,4.0,8.0,91,0.00,,,0.22,WUHU216DAVISVP2,2013-06-25 14:11:00,
2013-06-25 10:12:00,70.8,68.0,29.89,WSW,245,4.0,8.0,91,0.00,,,0.22,WUHU216DAVISVP2,2013-06-25 14:12:00,
2013-06-25 10:14:00,71.0,67.9,29.88,West,269,5.0,8.0,90,0.00,,,0.22,WUHU216DAVISVP2,2013-06-25 14:14:00,
2013-06-25 10:15:00,71.1,68.0,29.88,WSW,239,2.0,7.0,90,0.00,,,0.22,WUHU216DAVISVP2,2013-06-25 14:15:00,
2013-06-25 10:17:00,71.2,68.1,29.87,SW,224,4.0,7.0,90,0.00,,,0.22,WUHU216DAVISVP2,2013-06-25 14:17:00,
2013-06-25 10:18:00,71.2,68.1,29.87,SW,224,4.0,7.0,90,0.00,,,0.22,WUHU216DAVISVP2,2013-06-25 14:18:00,
2013-06-25 10:19:00,71.3,68.2,29.87,SSW,208,0.0,5.0,90,0.00,,,0.22,WUHU216DAVISVP2,2013-06-25 14:19:00,
2013-06-25 10:21:00,71.4,68.0,29.87,SW,220,1.0,5.0,89,0.00,,,0.22,WUHU216DAVISVP2,2013-06-25 14:21:00,
2013-06-25 10:23:00,71.6,68.5,29.86,South,171,0.0,5.0,90,0.00,,,0.22,WUHU216DAVISVP2,2013-06-25 14:23:00,
2013-06-25 10:26:00,71.9,68.8,29.84,South,190,4.0,5.0,90,0.00,,,0.22,WUHU216DAVISVP2,2013-06-25 14:26:00,
2013-06-25 10:28:00,72.0,68.6,29.83,SSE,151,5.0,7.0,89,0.00,,,0.22,WUHU216DAVISVP2,2013-06-25 14:28:00,
2013-06-25 10:30:00,72.2,69.1,29.82,SSE,154,1.0,7.0,90,0.00,,,0.22,WUHU216DAVISVP2,2013-06-25 14:30:00,
2013-06-25 10:33:00,72.4,68.3,29.83,SW,221,2.0,7.0,87,0.00,,,0.22,WUHU216DAVISVP2,2013-06-25 14:33:00,
2013-06-25 10:35:00,72.6,68.8,29.83,SW,214,1.0,7.0,88,0.00,,,0.22,WUHU216DAVISVP2,2013-06-25 14:35:00,
2013-06-25 10:37:00,72.6,68.2,29.84,South,169,2.0,7.0,86,0.00,,,0.22,WUHU216DAVISVP2,2013-06-25 14:37:00,
2013-06-25 10:38:00,72.6,68.2,29.84,South,169,2.0,7.0,86,0.00,,,0.22,WUHU216DAVISVP2,2013-06-25 14:38:00,
2013-06-25 10:39:00,72.7,68.0,29.84,SSW,198,0.0,6.0,85,0.00,,,0.22,WUHU216DAVISVP2,2013-06-25 14:39:00,
2013-06-25 10:42:00,72.9,68.2,29.84,SSW,209,1.0,5.0,85,0.00,,,0.22,WUHU216DAVISVP2,2013-06-25 14:42:00,
2013-06-25 10:43:00,72.9,68.2,29.84,SSW,209,1.0,5.0,85,0.00,,,0.22,WUHU216DAVISVP2,2013-06-25 14:43:00,
2013-06-25 10:45:00,72.9,67.8,29.84,West,261,5.0,8.0,84,0.00,,,0.22,WUHU216DAVISVP2,2013-06-25 14:45:00,
2013-06-25 10:46:00,73.0,67.9,29.85,SW,227,1.0,8.0,84,0.00,,,0.22,WUHU216DAVISVP2,2013-06-25 14:46:00,
2013-06-25 10:48:00,73.0,67.9,29.85,South,186,4.0,9.0,84,0.00,,,0.22,WUHU216DAVISVP2,2013-06-25 14:48:00,
2013-06-25 10:49:00,73.0,67.9,29.85,South,186,4.0,9.0,84,0.00,,,0.22,WUHU216DAVISVP2,2013-06-25 14:49:00,
2013-06-25 10:50:00,73.1,68.0,29.85,SSW,208,0.0,9.0,84,0.00,,,0.22,WUHU216DAVISVP2,2013-06-25 14:50:00,
2013-06-25 10:52:00,73.2,68.5,29.85,WSW,243,3.0,9.0,85,0.00,,,0.22,WUHU216DAVISVP2,2013-06-25 14:52:00,
2013-06-25 10:54:00,73.3,68.6,29.85,SSW,200,6.0,9.0,85,0.00,,,0.22,WUHU216DAVISVP2,2013-06-25 14:54:00,
2013-06-25 10:55:00,73.4,68.3,29.85,WSW,239,1.0,9.0,84,0.00,,,0.22,WUHU216DAVISVP2,2013-06-25 14:55:00,
2013-06-25 10:57:00,73.5,68.4,29.85,WSW,248,0.0,9.0,84,0.00,,,0.22,WUHU216DAVISVP2,2013-06-25 14:57:00,
2013-06-25 10:59:00,73.6,68.5,29.85,WSW,256,6.0,8.0,84,0.00,,,0.22,WUHU216DAVISVP2,2013-06-25 14:59:00,
2013-06-25 11:01:00,73.6,68.1,29.85,SSW,210,7.0,9.0,83,0.00,,,0.22,WUHU216DAVISVP2,2013-06-25 15:01:00,
2013-06-25 11:03:00,73.6,68.1,29.85,West,273,4.0,9.0,83,0.00,,,0.22,WUHU216DAVISVP2,2013-06-25 15:03:00,
2013-06-25 11:04:00,73.6,68.1,29.85,West,273,4.0,9.0,83,0.00,,,0.22,WUHU216DAVISVP2,2013-06-25 15:04:00,
2013-06-25 11:06:00,73.6,67.8,29.85,West,275,1.0,9.0,82,0.00,,,0.22,WUHU216DAVISVP2,2013-06-25 15:06:00,
2013-06-25 11:07:00,73.6,68.1,29.85,WSW,241,1.0,9.0,83,0.00,,,0.22,WUHU216DAVISVP2,2013-06-25 15:07:00,
2013-06-25 11:09:00,73.7,68.2,29.85,WNW,286,6.0,11.0,83,0.00,,,0.22,WUHU216DAVISVP2,2013-06-25 15:09:00,
2013-06-25 11:11:00,73.7,68.2,29.85,WSW,241,1.0,11.0,83,0.00,,,0.22,WUHU216DAVISVP2,2013-06-25 15:11:00,
2013-06-25 11:12:00,73.6,67.8,29.85,SSW,192,8.0,11.0,82,0.00,,,0.22,WUHU216DAVISVP2,2013-06-25 15:12:00,
2013-06-25 11:14:00,73.7,68.2,29.85,SW,215,1.0,11.0,83,0.00,,,0.22,WUHU216DAVISVP2,2013-06-25 15:14:00,
2013-06-25 11:15:00,73.7,68.2,29.85,SW,215,1.0,11.0,83,0.00,,,0.22,WUHU216DAVISVP2,2013-06-25 15:15:00,
2013-06-25 11:17:00,73.8,68.7,29.85,South,182,2.0,11.0,84,0.00,,,0.22,WUHU216DAVISVP2,2013-06-25 15:17:00,
2013-06-25 11:19:00,73.9,68.8,29.85,WNW,285,7.0,11.0,84,0.00,,,0.22,WUHU216DAVISVP2,2013-06-25 15:19:00,
2013-06-25 11:20:00,73.9,68.8,29.85,WNW,285,7.0,11.0,84,0.00,,,0.22,WUHU216DAVISVP2,2013-06-25 15:20:00,
2013-06-25 11:23:00,74.1,69.0,29.85,SSW,207,7.0,11.0,84,0.00,,,0.22,WUHU216DAVISVP2,2013-06-25 15:23:00,
2013-06-25 11:24:00,74.2,68.8,29.85,SW,222,1.0,11.0,83,0.00,,,0.22,WUHU216DAVISVP2,2013-06-25 15:24:00,
2013-06-25 11:25:00,74.2,68.8,29.85,SW,222,1.0,11.0,83,0.00,,,0.22,WUHU216DAVISVP2,2013-06-25 15:25:00,
2013-06-25 11:26:00,74.4,69.3,29.85,WSW,240,0.0,11.0,84,0.00,,,0.22,WUHU216DAVISVP2,2013-06-25 15:26:00,
2013-06-25 11:28:00,74.5,68.7,29.85,SW,232,2.0,11.0,82,0.00,,,0.22,WUHU216DAVISVP2,2013-06-25 15:28:00,
2013-06-25 11:30:00,74.6,68.8,29.85,WSW,248,4.0,10.0,82,0.00,,,0.22,WUHU216DAVISVP2,2013-06-25 15:30:00,
2013-06-25 11:33:00,74.8,68.7,29.85,WSW,248,5.0,10.0,81,0.00,,,0.22,WUHU216DAVISVP2,2013-06-25 15:33:00,
2013-06-25 11:35:00,74.9,69.1,29.85,SW,230,6.0,10.0,82,0.00,,,0.22,WUHU216DAVISVP2,2013-06-25 15:35:00,
2013-06-25 11:38:00,75.3,69.4,29.85,WSW,237,7.0,10.0,82,0.00,,,0.22,WUHU216DAVISVP2,2013-06-25 15:38:00,
2013-06-25 11:40:00,75.5,68.9,29.85,South,190,5.0,9.0,80,0.00,,,0.22,WUHU216DAVISVP2,2013-06-25 15:40:00,
2013-06-25 11:41:00,75.5,68.9,29.85,South,190,5.0,9.0,80,0.00,,,0.22,WUHU216DAVISVP2,2013-06-25 15:41:00,
2013-06-25 11:42:00,75.8,69.3,29.85,SW,224,5.0,10.0,80,0.00,,,0.22,WUHU216DAVISVP2,2013-06-25 15:42:00,
2013-06-25 11:44:00,75.9,69.4,29.85,SSW,200,7.0,10.0,80,0.00,,,0.22,WUHU216DAVISVP2,2013-06-25 15:44:00,
2013-06-25 11:46:00,76.0,69.1,29.85,West,277,6.0,10.0,79,0.00,,,0.22,WUHU216DAVISVP2,2013-06-25 15:46:00,
2013-06-25 11:47:00,76.0,69.5,29.85,SW,228,4.0,10.0,80,0.00,,,0.22,WUHU216DAVISVP2,2013-06-25 15:47:00,
2013-06-25 11:49:00,76.1,69.2,29.85,SSE,165,1.0,10.0,79,0.00,,,0.22,WUHU216DAVISVP2,2013-06-25 15:49:00,
2013-06-25 11:51:00,76.1,69.6,29.85,SW,225,5.0,11.0,80,0.00,,,0.22,WUHU216DAVISVP2,2013-06-25 15:51:00,
2013-06-25 11:53:00,76.2,69.3,29.85,SW,215,6.0,11.0,79,0.00,,,0.22,WUHU216DAVISVP2,2013-06-25 15:53:00,
2013-06-25 11:56:00,76.4,69.5,29.85,SSW,202,2.0,11.0,79,0.00,,,0.22,WUHU216DAVISVP2,2013-06-25 15:56:00,
2013-06-25 11:57:00,76.5,69.6,29.85,SW,228,3.0,11.0,79,0.00,,,0.22,WUHU216DAVISVP2,2013-06-25 15:57:00,
2013-06-25 11:58:00,76.6,69.7,29.85,WSW,244,6.0,11.0,79,0.00,,,0.22,WUHU216DAVISVP2,2013-06-25 15:58:00,
2013-06-25 12:00:00,76.6,69.0,29.85,SSE,151,2.0,12.0,77,0.00,,,0.22,WUHU216DAVISVP2,2013-06-25 16:00:00,
2013-06-25 12:02:00,76.6,69.4,29.85,SSW,213,1.0,12.0,78,0.00,,,0.22,WUHU216DAVISVP2,2013-06-25 16:02:00,
2013-06-25 12:03:00,76.7,69.5,29.85,SW,233,5.0,12.0,78,0.00,,,0.22,WUHU216DAVISVP2,2013-06-25 16:03:00,
2013-06-25 12:05:00,76.8,69.5,29.85,SSW,207,8.0,12.0,78,0.00,,,0.22,WUHU216DAVISVP2,2013-06-25 16:05:00,
2013-06-25 12:07:00,76.9,69.3,29.85,WSW,241,5.0,12.0,77,0.00,,,0.22,WUHU216DAVISVP2,2013-06-25 16:07:00,
2013-06-25 12:08:00,77.0,69.4,29.85,WSW,238,7.0,12.0,77,0.00,,,0.22,WUHU216DAVISVP2,2013-06-25 16:08:00,
2013-06-25 12:10:00,77.1,69.1,29.85,WNW,283,0.0,9.0,76,0.00,,,0.22,WUHU216DAVISVP2,2013-06-25 16:10:00,
2013-06-25 12:12:00,77.3,69.3,29.85,South,169,7.0,9.0,76,0.00,,,0.22,WUHU216DAVISVP2,2013-06-25 16:12:00,
2013-06-25 12:13:00,77.3,69.3,29.85,South,169,7.0,9.0,76,0.00,,,0.22,WUHU216DAVISVP2,2013-06-25 16:13:00,
2013-06-25 12:14:00,77.4,69.4,29.85,SW,219,0.0,9.0,76,0.00,,,0.22,WUHU216DAVISVP2,2013-06-25 16:14:00,
2013-06-25 12:15:00,77.5,69.5,29.85,SW,227,5.0,9.0,76,0.00,,,0.22,WUHU216DAVISVP2,2013-06-25 16:15:00,
2013-06-25 12:17:00,77.5,69.5,29.85,WSW,243,1.0,8.0,76,0.00,,,0.22,WUHU216DAVISVP2,2013-06-25 16:17:00,
2013-06-25 12:18:00,77.5,69.5,29.85,WSW,243,1.0,8.0,76,0.00,,,0.22,WUHU216DAVISVP2,2013-06-25 16:18:00,
2013-06-25 12:19:00,77.7,69.7,29.85,SW,217,4.0,8.0,76,0.00,,,0.22,WUHU216DAVISVP2,2013-06-25 16:19:00,
2013-06-25 12:21:00,77.9,69.5,29.85,South,188,4.0,12.0,75,0.00,,,0.22,WUHU216DAVISVP2,2013-06-25 16:21:00,
2013-06-25 12:23:00,78.1,70.8,29.85,WNW,288,2.0,12.0,78,0.00,,,0.22,WUHU216DAVISVP2,2013-06-25 16:23:00,
2013-06-25 12:24:00,78.3,70.3,29.85,West,267,2.0,12.0,76,0.00,,,0.22,WUHU216DAVISVP2,2013-06-25 16:24:00,
2013-06-25 12:26:00,78.5,70.5,29.85,SW,217,4.0,12.0,76,0.00,,,0.22,WUHU216DAVISVP2,2013-06-25 16:26:00,
2013-06-25 12:28:00,78.8,70.8,29.85,SW,226,4.0,12.0,76,0.00,,,0.22,WUHU216DAVISVP2,2013-06-25 16:28:00,
2013-06-25 12:30:00,79.0,70.2,29.85,West,271,5.0,9.0,74,0.00,,,0.22,WUHU216DAVISVP2,2013-06-25 16:30:00,
2013-06-25 12:31:00,79.2,70.0,29.86,WNW,289,6.0,10.0,73,0.00,,,0.22,WUHU216DAVISVP2,2013-06-25 16:31:00,
2013-06-25 12:33:00,79.2,70.0,29.86,WNW,289,6.0,10.0,73,0.00,,,0.22,WUHU216DAVISVP2,2013-06-25 16:33:00,
2013-06-25 12:36:00,79.5,71.1,29.85,WSW,249,5.0,10.0,75,0.00,,,0.22,WUHU216DAVISVP2,2013-06-25 16:36:00,
2013-06-25 12:38:00,79.8,71.0,29.86,West,271,5.0,10.0,74,0.00,,,0.22,WUHU216DAVISVP2,2013-06-25 16:38:00,
2013-06-25 12:40:00,80.1,70.9,29.86,WSW,249,7.0,10.0,73,0.00,,,0.22,WUHU216DAVISVP2,2013-06-25 16:40:00,
2013-06-25 12:42:00,80.5,69.6,29.86,SSW,209,7.0,10.0,69,0.00,,,0.22,WUHU216DAVISVP2,2013-06-25 16:42:00,
2013-06-25 12:43:00,80.5,69.6,29.86,SSW,209,7.0,10.0,69,0.00,,,0.22,WUHU216DAVISVP2,2013-06-25 16:43:00,
2013-06-25 12:45:00,80.7,69.4,29.86,SW,217,1.0,10.0,68,0.00,,,0.22,WUHU216DAVISVP2,2013-06-25 16:45:00,
2013-06-25 12:48:00,81.1,69.8,29.86,WSW,257,6.0,10.0,68,0.00,,,0.22,WUHU216DAVISVP2,2013-06-25 16:48:00,
2013-06-25 12:49:00,81.2,69.4,29.86,West,263,8.0,10.0,67,0.00,,,0.22,WUHU216DAVISVP2,2013-06-25 16:49:00,
2013-06-25 12:52:00,81.3,70.0,29.86,WSW,241,5.0,10.0,68,0.00,,,0.22,WUHU216DAVISVP2,2013-06-25 16:52:00,
2013-06-25 12:53:00,81.3,70.0,29.86,West,267,5.0,9.0,68,0.00,,,0.22,WUHU216DAVISVP2,2013-06-25 16:53:00,
2013-06-25 12:54:00,81.3,70.0,29.86,West,267,5.0,9.0,68,0.00,,,0.22,WUHU216DAVISVP2,2013-06-25 16:54:00,
2013-06-25 12:56:00,81.2,70.3,29.86,West,277,6.0,9.0,69,0.00,,,0.22,WUHU216DAVISVP2,2013-06-25 16:56:00,
2013-06-25 12:58:00,81.1,70.2,29.86,West,278,10.0,10.0,69,0.00,,,0.22,WUHU216DAVISVP2,2013-06-25 16:58:00,
2013-06-25 12:59:00,81.1,70.2,29.86,West,278,10.0,10.0,69,0.00,,,0.22,WUHU216DAVISVP2,2013-06-25 16:59:00,
2013-06-25 13:03:00,80.3,70.3,29.86,West,262,4.0,10.0,71,0.00,,,0.22,WUHU216DAVISVP2,2013-06-25 17:03:00,
2013-06-25 13:04:00,80.3,70.3,29.86,West,262,4.0,10.0,71,0.00,,,0.22,WUHU216DAVISVP2,2013-06-25 17:04:00,
2013-06-25 13:05:00,80.2,70.6,29.86,West,265,2.0,10.0,72,0.00,,,0.22,WUHU216DAVISVP2,2013-06-25 17:05:00,
2013-06-25 13:07:00,80.2,70.6,29.86,WSW,251,4.0,10.0,72,0.00,,,0.22,WUHU216DAVISVP2,2013-06-25 17:07:00,
2013-06-25 13:08:00,80.2,70.6,29.86,WNW,282,4.0,9.0,72,0.00,,,0.22,WUHU216DAVISVP2,2013-06-25 17:08:00,
2013-06-25 13:09:00,80.2,70.6,29.86,WNW,282,4.0,9.0,72,0.00,,,0.22,WUHU216DAVISVP2,2013-06-25 17:09:00,
2013-06-25 13:10:00,80.2,70.6,29.86,West,270,3.0,9.0,72,0.00,,,0.22,WUHU216DAVISVP2,2013-06-25 17:10:00,
2013-06-25 13:14:00,80.2,70.6,29.86,WNW,293,5.0,8.0,72,0.00,,,0.22,WUHU216DAVISVP2,2013-06-25 17:14:00,
2013-06-25 13:15:00,80.3,71.1,29.85,South,183,5.0,9.0,73,0.00,,,0.22,WUHU216DAVISVP2,2013-06-25 17:15:00,
2013-06-25 13:17:00,80.5,71.2,29.85,SSW,192,11.0,12.0,73,0.00,,,0.22,WUHU216DAVISVP2,2013-06-25 17:17:00,
2013-06-25 13:19:00,80.6,70.9,29.85,WSW,245,6.0,12.0,72,0.00,,,0.22,WUHU216DAVISVP2,2013-06-25 17:19:00,
2013-06-25 13:20:00,80.6,70.9,29.85,WSW,245,6.0,12.0,72,0.00,,,0.22,WUHU216DAVISVP2,2013-06-25 17:20:00,
2013-06-25 13:21:00,80.7,71.0,29.85,SSW,209,6.0,12.0,72,0.00,,,0.22,WUHU216DAVISVP2,2013-06-25 17:21:00,
2013-06-25 13:22:00,80.7,71.4,29.85,SW,232,4.0,12.0,73,0.00,,,0.22,WUHU216DAVISVP2,2013-06-25 17:22:00,
2013-06-25 13:25:00,80.8,71.5,29.85,West,274,6.0,12.0,73,0.00,,,0.22,WUHU216DAVISVP2,2013-06-25 17:25:00,
2013-06-25 13:26:00,80.9,71.6,29.85,West,277,4.0,12.0,73,0.00,,,0.22,WUHU216DAVISVP2,2013-06-25 17:26:00,
2013-06-25 13:27:00,81.1,71.4,29.85,SW,227,7.0,12.0,72,0.00,,,0.22,WUHU216DAVISVP2,2013-06-25 17:27:00,
2013-06-25 13:31:00,81.5,71.8,29.84,WSW,253,7.0,11.0,72,0.00,,,0.22,WUHU216DAVISVP2,2013-06-25 17:31:00,
2013-06-25 13:32:00,81.6,71.9,29.84,SW,235,7.0,12.0,72,0.00,,,0.22,WUHU216DAVISVP2,2013-06-25 17:32:00,
2013-06-25 13:34:00,81.7,72.0,29.84,WSW,252,6.0,12.0,72,0.00,,,0.22,WUHU216DAVISVP2,2013-06-25 17:34:00,
2013-06-25 13:36:00,81.8,72.1,29.84,SW,233,7.0,12.0,72,0.00,,,0.22,WUHU216DAVISVP2,2013-06-25 17:36:00,
2013-06-25 13:38:00,81.8,72.1,29.84,SSE,165,3.0,13.0,72,0.00,,,0.22,WUHU216DAVISVP2,2013-06-25 17:38:00,
2013-06-25 13:40:00,81.8,72.5,29.84,West,264,11.0,13.0,73,0.00,,,0.22,WUHU216DAVISVP2,2013-06-25 17:40:00,
2013-06-25 13:41:00,81.8,72.5,29.84,West,264,11.0,13.0,73,0.00,,,0.22,WUHU216DAVISVP2,2013-06-25 17:41:00,
2013-06-25 13:46:00,82.3,72.2,29.84,WSW,238,5.0,14.0,71,0.00,,,0.22,WUHU216DAVISVP2,2013-06-25 17:46:00,
2013-06-25 13:48:00,82.3,72.6,29.84,West,281,7.0,14.0,72,0.00,,,0.22,WUHU216DAVISVP2,2013-06-25 17:48:00,
2013-06-25 13:49:00,82.2,72.5,29.84,SW,235,9.0,14.0,72,0.00,,,0.22,WUHU216DAVISVP2,2013-06-25 17:49:00,
2013-06-25 13:51:00,82.1,72.4,29.84,WSW,251,12.0,14.0,72,0.00,,,0.22,WUHU216DAVISVP2,2013-06-25 17:51:00,
2013-06-25 13:52:00,82.1,72.4,29.84,WSW,251,12.0,14.0,72,0.00,,,0.22,WUHU216DAVISVP2,2013-06-25 17:52:00,
2013-06-25 13:55:00,81.8,72.5,29.84,West,261,12.0,16.0,73,0.00,,,0.22,WUHU216DAVISVP2,2013-06-25 17:55:00,
2013-06-25 13:57:00,81.6,72.3,29.84,SSW,209,6.0,16.0,73,0.00,,,0.22,WUHU216DAVISVP2,2013-06-25 17:57:00,
2013-06-25 13:58:00,81.5,72.2,29.84,WSW,257,5.0,16.0,73,0.00,,,0.22,WUHU216DAVISVP2,2013-06-25 17:58:00,
2013-06-25 14:02:00,81.5,72.6,29.84,West,271,5.0,16.0,74,0.00,,,0.22,WUHU216DAVISVP2,2013-06-25 18:02:00,
2013-06-25 14:03:00,81.4,72.5,29.84,West,271,10.0,15.0,74,0.00,,,0.22,WUHU216DAVISVP2,2013-06-25 18:03:00,
2013-06-25 14:07:00,81.1,72.2,29.84,West,280,9.0,15.0,74,0.00,,,0.22,WUHU216DAVISVP2,2013-06-25 18:07:00,
2013-06-25 14:09:00,80.9,72.4,29.83,West,263,3.0,15.0,75,0.00,,,0.22,WUHU216DAVISVP2,2013-06-25 18:09:00,
2013-06-25 14:12:00,80.9,72.8,29.83,South,184,8.0,15.0,76,0.00,,,0.22,WUHU216DAVISVP2,2013-06-25 18:12:00,
2013-06-25 14:15:00,81.0,73.3,29.83,West,266,6.0,15.0,77,0.00,,,0.22,WUHU216DAVISVP2,2013-06-25 18:15:00,
2013-06-25 14:16:00,81.1,73.7,29.83,NW,307,6.0,15.0,78,0.01,,,0.23,WUHU216DAVISVP2,2013-06-25 18:16:00,
2013-06-25 14:17:00,81.1,73.7,29.83,NW,307,6.0,15.0,78,0.01,,,0.23,WUHU216DAVISVP2,2013-06-25 18:17:00,
2013-06-25 14:20:00,79.4,72.4,29.84,WNW,290,9.0,20.0,79,0.05,,,0.27,WUHU216DAVISVP2,2013-06-25 18:20:00,
2013-06-25 14:22:00,78.9,73.0,29.83,West,269,7.0,20.0,82,0.05,,,0.27,WUHU216DAVISVP2,2013-06-25 18:22:00,
2013-06-25 14:23:00,78.9,73.0,29.83,West,269,7.0,20.0,82,0.05,,,0.27,WUHU216DAVISVP2,2013-06-25 18:23:00,
2013-06-25 14:25:00,78.5,73.7,29.82,WNW,290,4.0,20.0,85,0.05,,,0.27,WUHU216DAVISVP2,2013-06-25 18:25:00,
2013-06-25 14:27:00,78.5,74.0,29.82,WNW,289,7.0,20.0,86,0.05,,,0.27,WUHU216DAVISVP2,2013-06-25 18:27:00,
2013-06-25 14:28:00,78.5,74.0,29.82,WNW,289,7.0,20.0,86,0.05,,,0.27,WUHU216DAVISVP2,2013-06-25 18:28:00,
2013-06-25 14:30:00,78.7,73.9,29.82,West,271,6.0,10.0,85,0.05,,,0.27,WUHU216DAVISVP2,2013-06-25 18:30:00,
2013-06-25 14:32:00,78.9,74.4,29.82,WSW,258,4.0,9.0,86,0.05,,,0.27,WUHU216DAVISVP2,2013-06-25 18:32:00,
2013-06-25 14:33:00,78.9,74.4,29.82,WSW,258,4.0,9.0,86,0.05,,,0.27,WUHU216DAVISVP2,2013-06-25 18:33:00,
2013-06-25 14:34:00,79.1,74.6,29.82,WNW,298,5.0,9.0,86,0.05,,,0.27,WUHU216DAVISVP2,2013-06-25 18:34:00,
2013-06-25 14:35:00,79.2,74.3,29.81,NW,306,7.0,9.0,85,0.05,,,0.27,WUHU216DAVISVP2,2013-06-25 18:35:00,
2013-06-25 14:38:00,79.3,73.4,29.81,NW,312,7.0,11.0,82,0.05,,,0.27,WUHU216DAVISVP2,2013-06-25 18:38:00,
2013-06-25 14:41:00,79.6,73.4,29.81,West,271,6.0,11.0,81,0.05,,,0.27,WUHU216DAVISVP2,2013-06-25 18:41:00,
2013-06-25 14:43:00,79.7,73.8,29.81,West,264,6.0,11.0,82,0.05,,,0.27,WUHU216DAVISVP2,2013-06-25 18:43:00,
2013-06-25 14:44:00,79.8,73.9,29.81,WNW,296,4.0,11.0,82,0.05,,,0.27,WUHU216DAVISVP2,2013-06-25 18:44:00,
2013-06-25 14:48:00,80.2,73.2,29.81,West,279,6.0,9.0,79,0.05,,,0.27,WUHU216DAVISVP2,2013-06-25 18:48:00,
2013-06-25 14:49:00,80.3,73.7,29.81,West,268,5.0,9.0,80,0.05,,,0.27,WUHU216DAVISVP2,2013-06-25 18:49:00,
2013-06-25 14:52:00,80.6,73.6,29.80,SW,215,4.0,10.0,79,0.05,,,0.27,WUHU216DAVISVP2,2013-06-25 18:52:00,
2013-06-25 14:53:00,80.6,73.6,29.80,SW,215,4.0,10.0,79,0.05,,,0.27,WUHU216DAVISVP2,2013-06-25 18:53:00,
2013-06-25 14:54:00,80.8,74.2,29.80,WNW,282,6.0,10.0,80,0.05,,,0.27,WUHU216DAVISVP2,2013-06-25 18:54:00,
2013-06-25 14:55:00,81.1,74.1,29.80,West,263,2.0,10.0,79,0.05,,,0.27,WUHU216DAVISVP2,2013-06-25 18:55:00,
2013-06-25 14:57:00,81.3,74.3,29.80,SSW,211,3.0,10.0,79,0.05,,,0.27,WUHU216DAVISVP2,2013-06-25 18:57:00,
2013-06-25 14:59:00,81.3,74.3,29.80,SSW,211,3.0,10.0,79,0.05,,,0.27,WUHU216DAVISVP2,2013-06-25 18:59:00,
2013-06-25 15:00:00,81.6,73.8,29.80,South,185,9.0,10.0,77,0.05,,,0.27,WUHU216DAVISVP2,2013-06-25 19:00:00,
2013-06-25 15:02:00,81.7,74.3,29.79,South,186,4.0,9.0,78,0.05,,,0.27,WUHU216DAVISVP2,2013-06-25 19:02:00,
2013-06-25 15:04:00,81.7,74.3,29.79,South,186,4.0,9.0,78,0.05,,,0.27,WUHU216DAVISVP2,2013-06-25 19:04:00,
2013-06-25 15:07:00,82.0,74.6,29.79,SW,215,6.0,9.0,78,0.05,,,0.27,WUHU216DAVISVP2,2013-06-25 19:07:00,
2013-06-25 15:09:00,82.0,73.9,29.79,SSW,207,5.0,9.0,76,0.05,,,0.27,WUHU216DAVISVP2,2013-06-25 19:09:00,
2013-06-25 15:10:00,82.0,73.9,29.79,SSE,163,5.0,9.0,76,0.05,,,0.27,WUHU216DAVISVP2,2013-06-25 19:10:00,
2013-06-25 15:13:00,82.0,73.5,29.78,SW,235,5.0,11.0,75,0.05,,,0.27,WUHU216DAVISVP2,2013-06-25 19:13:00,
2013-06-25 15:14:00,82.0,73.5,29.78,SW,235,5.0,11.0,75,0.05,,,0.27,WUHU216DAVISVP2,2013-06-25 19:14:00,
2013-06-25 15:15:00,82.1,74.0,29.78,South,188,4.0,11.0,76,0.05,,,0.27,WUHU216DAVISVP2,2013-06-25 19:15:00,
2013-06-25 15:17:00,82.1,73.6,29.77,West,263,8.0,11.0,75,0.04,,,0.27,WUHU216DAVISVP2,2013-06-25 19:17:00,
2013-06-25 15:19:00,82.2,72.9,29.78,SSW,211,11.0,14.0,73,0.00,,,0.27,WUHU216DAVISVP2,2013-06-25 19:19:00,
2013-06-25 15:21:00,82.2,72.9,29.77,SW,227,5.0,14.0,73,0.00,,,0.27,WUHU216DAVISVP2,2013-06-25 19:21:00,
2013-06-25 15:24:00,82.3,72.6,29.77,SW,222,11.0,14.0,72,0.00,,,0.27,WUHU216DAVISVP2,2013-06-25 19:24:00,
2013-06-25 15:27:00,82.5,72.8,29.76,SW,215,11.0,14.0,72,0.00,,,0.27,WUHU216DAVISVP2,2013-06-25 19:27:00,
2013-06-25 15:29:00,82.6,72.9,29.76,SSW,197,7.0,14.0,72,0.00,,,0.27,WUHU216DAVISVP2,2013-06-25 19:29:00,
2013-06-25 15:31:00,82.8,72.7,29.76,West,267,2.0,13.0,71,0.00,,,0.27,WUHU216DAVISVP2,2013-06-25 19:31:00,
2013-06-25 15:34:00,83.0,72.9,29.75,SW,229,5.0,12.0,71,0.00,,,0.27,WUHU216DAVISVP2,2013-06-25 19:34:00,
2013-06-25 15:35:00,83.1,73.0,29.75,SW,221,2.0,12.0,71,0.00,,,0.27,WUHU216DAVISVP2,2013-06-25 19:35:00,
2013-06-25 15:36:00,83.3,72.7,29.74,WNW,292,5.0,11.0,70,0.00,,,0.27,WUHU216DAVISVP2,2013-06-25 19:36:00,
2013-06-25 15:39:00,83.5,72.5,29.74,WSW,240,2.0,10.0,69,0.00,,,0.27,WUHU216DAVISVP2,2013-06-25 19:39:00,
2013-06-25 15:41:00,83.6,72.6,29.73,SSE,164,4.0,11.0,69,0.00,,,0.27,WUHU216DAVISVP2,2013-06-25 19:41:00,
2013-06-25 15:44:00,83.9,73.3,29.73,WSW,238,5.0,11.0,70,0.00,,,0.27,WUHU216DAVISVP2,2013-06-25 19:44:00,
2013-06-25 15:45:00,83.9,73.3,29.73,WSW,238,5.0,11.0,70,0.00,,,0.27,WUHU216DAVISVP2,2013-06-25 19:45:00,
2013-06-25 15:46:00,84.0,73.4,29.73,WSW,255,4.0,11.0,70,0.00,,,0.27,WUHU216DAVISVP2,2013-06-25 19:46:00,
2013-06-25 15:48:00,84.1,73.9,29.73,SW,225,7.0,11.0,71,0.00,,,0.27,WUHU216DAVISVP2,2013-06-25 19:48:00,
2013-06-25 15:49:00,84.2,74.4,29.73,SW,219,5.0,10.0,72,0.00,,,0.27,WUHU216DAVISVP2,2013-06-25 19:49:00,
2013-06-25 15:50:00,84.2,74.4,29.73,SW,219,5.0,10.0,72,0.00,,,0.27,WUHU216DAVISVP2,2013-06-25 19:50:00,
2013-06-25 15:52:00,84.5,74.7,29.73,SSW,196,0.0,10.0,72,0.00,,,0.27,WUHU216DAVISVP2,2013-06-25 19:52:00,
2013-06-25 15:54:00,84.7,74.5,29.73,SW,223,1.0,10.0,71,0.00,,,0.27,WUHU216DAVISVP2,2013-06-25 19:54:00,
2013-06-25 15:55:00,84.7,74.5,29.73,SW,223,1.0,10.0,71,0.00,,,0.27,WUHU216DAVISVP2,2013-06-25 19:55:00,
2013-06-25 15:57:00,85.1,74.9,29.72,SW,217,1.0,8.0,71,0.00,,,0.27,WUHU216DAVISVP2,2013-06-25 19:57:00,
2013-06-25 16:00:00,85.4,73.9,29.73,West,260,6.0,11.0,68,0.00,,,0.27,WUHU216DAVISVP2,2013-06-25 20:00:00,
2013-06-25 16:02:00,85.5,73.6,29.74,SW,223,1.0,11.0,67,0.00,,,0.27,WUHU216DAVISVP2,2013-06-25 20:02:00,
2013-06-25 16:05:00,85.6,74.1,29.74,WNW,282,6.0,11.0,68,0.00,,,0.27,WUHU216DAVISVP2,2013-06-25 20:05:00,
2013-06-25 16:06:00,85.6,72.8,29.74,West,259,6.0,11.0,65,0.00,,,0.27,WUHU216DAVISVP2,2013-06-25 20:06:00,
2013-06-25 16:09:00,85.6,73.7,29.74,SW,219,8.0,11.0,67,0.00,,,0.27,WUHU216DAVISVP2,2013-06-25 20:09:00,
2013-06-25 16:10:00,85.6,73.7,29.74,West,279,8.0,11.0,67,0.00,,,0.27,WUHU216DAVISVP2,2013-06-25 20:10:00,
2013-06-25 16:13:00,85.6,73.2,29.75,WSW,250,9.0,11.0,66,0.00,,,0.27,WUHU216DAVISVP2,2013-06-25 20:13:00,
2013-06-25 16:15:00,85.7,73.3,29.75,WSW,250,6.0,11.0,66,0.00,,,0.27,WUHU216DAVISVP2,2013-06-25 20:15:00,
2013-06-25 16:19:00,85.6,72.8,29.75,WSW,237,2.0,13.0,65,0.00,,,0.27,WUHU216DAVISVP2,2013-06-25 20:19:00,
2013-06-25 16:20:00,85.6,72.8,29.75,WSW,237,2.0,13.0,65,0.00,,,0.27,WUHU216DAVISVP2,2013-06-25 20:20:00,
2013-06-25 16:22:00,85.7,73.3,29.76,West,266,6.0,13.0,66,0.00,,,0.27,WUHU216DAVISVP2,2013-06-25 20:22:00,
2013-06-25 16:26:00,85.8,73.4,29.76,WSW,243,5.0,13.0,66,0.00,,,0.27,WUHU216DAVISVP2,2013-06-25 20:26:00,
2013-06-25 16:28:00,85.9,73.5,29.76,West,279,7.0,11.0,66,0.00,,,0.27,WUHU216DAVISVP2,2013-06-25 20:28:00,
2013-06-25 16:29:00,86.0,73.6,29.76,WNW,286,5.0,11.0,66,0.00,,,0.27,WUHU216DAVISVP2,2013-06-25 20:29:00,
2013-06-25 16:31:00,86.0,73.6,29.76,WNW,286,5.0,11.0,66,0.00,,,0.27,WUHU216DAVISVP2,2013-06-25 20:31:00,
2013-06-25 16:33:00,86.2,73.8,29.76,West,261,6.0,12.0,66,0.00,,,0.27,WUHU216DAVISVP2,2013-06-25 20:33:00,
2013-06-25 16:36:00,86.3,73.9,29.76,WSW,242,3.0,12.0,66,0.00,,,0.27,WUHU216DAVISVP2,2013-06-25 20:36:00,
2013-06-25 16:38:00,86.5,74.1,29.76,SW,227,3.0,12.0,66,0.00,,,0.27,WUHU216DAVISVP2,2013-06-25 20:38:00,
2013-06-25 16:39:00,86.6,74.2,29.76,NNW,327,7.0,12.0,66,0.00,,,0.27,WUHU216DAVISVP2,2013-06-25 20:39:00,
2013-06-25 16:41:00,86.7,73.4,29.76,SSW,202,10.0,12.0,64,0.00,,,0.27,WUHU216DAVISVP2,2013-06-25 20:41:00,
2013-06-25 16:43:00,86.7,73.8,29.76,WSW,254,7.0,12.0,65,0.00,,,0.27,WUHU216DAVISVP2,2013-06-25 20:43:00,
2013-06-25 16:44:00,86.7,73.8,29.76,SSW,203,1.0,12.0,65,0.00,,,0.27,WUHU216DAVISVP2,2013-06-25 20:44:00,
2013-06-25 16:46:00,86.7,74.3,29.77,SW,227,0.0,12.0,66,0.00,,,0.27,WUHU216DAVISVP2,2013-06-25 20:46:00,
2013-06-25 16:47:00,86.7,74.3,29.77,SW,227,0.0,12.0,66,0.00,,,0.27,WUHU216DAVISVP2,2013-06-25 20:47:00,
2013-06-25 16:48:00,86.7,73.4,29.77,WNW,299,5.0,12.0,64,0.00,,,0.27,WUHU216DAVISVP2,2013-06-25 20:48:00,
2013-06-25 16:50:00,86.7,73.4,29.76,West,273,5.0,11.0,64,0.00,,,0.27,WUHU216DAVISVP2,2013-06-25 20:50:00,
2013-06-25 16:52:00,86.7,74.3,29.76,West,261,6.0,11.0,66,0.00,,,0.27,WUHU216DAVISVP2,2013-06-25 20:52:00,
2013-06-25 16:56:00,86.7,74.3,29.76,West,281,6.0,11.0,66,0.00,,,0.27,WUHU216DAVISVP2,2013-06-25 20:56:00,
2013-06-25 16:57:00,86.7,74.3,29.76,West,281,6.0,11.0,66,0.00,,,0.27,WUHU216DAVISVP2,2013-06-25 20:57:00,
2013-06-25 16:59:00,86.8,73.0,29.76,West,265,3.0,15.0,63,0.00,,,0.27,WUHU216DAVISVP2,2013-06-25 20:59:00,
2013-06-25 17:01:00,86.8,72.5,29.76,SSW,202,6.0,15.0,62,0.00,,,0.27,WUHU216DAVISVP2,2013-06-25 21:01:00,
2013-06-25 17:02:00,86.8,72.5,29.76,SSW,202,6.0,15.0,62,0.00,,,0.27,WUHU216DAVISVP2,2013-06-25 21:02:00,
2013-06-25 17:04:00,86.7,72.4,29.76,West,277,9.0,15.0,62,0.00,,,0.27,WUHU216DAVISVP2,2013-06-25 21:04:00,
2013-06-25 17:06:00,86.4,72.6,29.77,NNW,329,6.0,15.0,63,0.00,,,0.27,WUHU216DAVISVP2,2013-06-25 21:06:00,
2013-06-25 17:07:00,86.4,72.6,29.77,NNW,329,6.0,15.0,63,0.00,,,0.27,WUHU216DAVISVP2,2013-06-25 21:07:00,
2013-06-25 17:09:00,86.3,73.0,29.77,WNW,284,11.0,16.0,64,0.00,,,0.27,WUHU216DAVISVP2,2013-06-25 21:09:00,
2013-06-25 17:11:00,86.1,72.8,29.76,WNW,300,8.0,16.0,64,0.00,,,0.27,WUHU216DAVISVP2,2013-06-25 21:11:00,
2013-06-25 17:12:00,86.1,72.8,29.76,WNW,300,8.0,16.0,64,0.00,,,0.27,WUHU216DAVISVP2,2013-06-25 21:12:00,
2013-06-25 17:14:00,86.0,72.7,29.76,West,275,7.0,16.0,64,0.00,,,0.27,WUHU216DAVISVP2,2013-06-25 21:14:00,
2013-06-25 17:15:00,86.0,73.6,29.77,West,277,6.0,16.0,66,0.00,,,0.27,WUHU216DAVISVP2,2013-06-25 21:15:00,
2013-06-25 17:17:00,85.9,72.6,29.77,NW,306,9.0,16.0,64,0.00,,,0.27,WUHU216DAVISVP2,2013-06-25 21:17:00,
2013-06-25 17:19:00,85.7,72.4,29.77,West,271,8.0,14.0,64,0.00,,,0.27,WUHU216DAVISVP2,2013-06-25 21:19:00,
2013-06-25 17:21:00,85.7,72.9,29.77,West,272,7.0,12.0,65,0.00,,,0.27,WUHU216DAVISVP2,2013-06-25 21:21:00,
2013-06-25 17:22:00,85.7,72.9,29.77,West,272,7.0,12.0,65,0.00,,,0.27,WUHU216DAVISVP2,2013-06-25 21:22:00,
2013-06-25 17:23:00,85.6,73.2,29.76,West,263,6.0,12.0,66,0.00,,,0.27,WUHU216DAVISVP2,2013-06-25 21:23:00,
2013-06-25 17:24:00,85.5,73.1,29.76,WNW,290,9.0,12.0,66,0.00,,,0.27,WUHU216DAVISVP2,2013-06-25 21:24:00,
2013-06-25 17:27:00,85.3,72.5,29.76,West,275,6.0,15.0,65,0.00,,,0.27,WUHU216DAVISVP2,2013-06-25 21:27:00,
2013-06-25 17:29:00,85.2,72.8,29.76,WSW,250,10.0,15.0,66,0.00,,,0.27,WUHU216DAVISVP2,2013-06-25 21:29:00,
2013-06-25 17:31:00,85.0,73.1,29.76,WSW,258,5.0,15.0,67,0.00,,,0.27,WUHU216DAVISVP2,2013-06-25 21:31:00,
2013-06-25 17:32:00,85.0,73.1,29.76,West,266,6.0,15.0,67,0.00,,,0.27,WUHU216DAVISVP2,2013-06-25 21:32:00,
2013-06-25 17:34:00,85.0,73.1,29.76,West,261,8.0,15.0,67,0.00,,,0.27,WUHU216DAVISVP2,2013-06-25 21:34:00,
2013-06-25 17:36:00,84.9,73.4,29.76,WNW,288,4.0,14.0,68,0.00,,,0.27,WUHU216DAVISVP2,2013-06-25 21:36:00,
2013-06-25 17:38:00,84.9,73.4,29.76,WNW,288,4.0,14.0,68,0.00,,,0.27,WUHU216DAVISVP2,2013-06-25 21:38:00,
2013-06-25 17:40:00,84.8,73.3,29.76,West,260,4.0,11.0,68,0.00,,,0.27,WUHU216DAVISVP2,2013-06-25 21:40:00,
2013-06-25 17:43:00,84.8,73.3,29.76,West,279,7.0,11.0,68,0.00,,,0.27,WUHU216DAVISVP2,2013-06-25 21:43:00,
2013-06-25 17:45:00,84.8,73.8,29.76,West,273,4.0,10.0,69,0.00,,,0.27,WUHU216DAVISVP2,2013-06-25 21:45:00,
2013-06-25 17:46:00,84.9,73.8,29.76,WNW,299,6.0,10.0,69,0.00,,,0.27,WUHU216DAVISVP2,2013-06-25 21:46:00,
2013-06-25 17:48:00,84.9,73.8,29.76,WNW,299,6.0,10.0,69,0.00,,,0.27,WUHU216DAVISVP2,2013-06-25 21:48:00,
2013-06-25 17:51:00,85.0,73.9,29.76,NW,306,8.0,11.0,69,0.00,,,0.27,WUHU216DAVISVP2,2013-06-25 21:51:00,
2013-06-25 17:53:00,85.1,74.0,29.75,WNW,298,7.0,11.0,69,0.00,,,0.27,WUHU216DAVISVP2,2013-06-25 21:53:00,
2013-06-25 17:56:00,85.1,73.6,29.75,West,281,6.0,11.0,68,0.00,,,0.27,WUHU216DAVISVP2,2013-06-25 21:56:00,
2013-06-25 17:57:00,85.1,73.6,29.75,West,278,4.0,11.0,68,0.00,,,0.27,WUHU216DAVISVP2,2013-06-25 21:57:00,
2013-06-25 17:58:00,85.1,73.6,29.75,West,278,4.0,11.0,68,0.00,,,0.27,WUHU216DAVISVP2,2013-06-25 21:58:00,
2013-06-25 17:59:00,85.1,73.6,29.75,West,281,3.0,9.0,68,0.00,,,0.27,WUHU216DAVISVP2,2013-06-25 21:59:00,
2013-06-25 18:01:00,85.1,73.6,29.75,West,277,3.0,9.0,68,0.00,,,0.27,WUHU216DAVISVP2,2013-06-25 22:01:00,
2013-06-25 18:03:00,85.1,74.0,29.75,NNW,330,5.0,9.0,69,0.00,,,0.27,WUHU216DAVISVP2,2013-06-25 22:03:00,
2013-06-25 18:04:00,85.1,74.0,29.75,NNW,330,5.0,9.0,69,0.00,,,0.27,WUHU216DAVISVP2,2013-06-25 22:04:00,
2013-06-25 18:05:00,85.2,73.7,29.75,WNW,289,5.0,9.0,68,0.00,,,0.27,WUHU216DAVISVP2,2013-06-25 22:05:00,
2013-06-25 18:07:00,85.1,73.2,29.74,NW,317,4.0,9.0,67,0.00,,,0.27,WUHU216DAVISVP2,2013-06-25 22:07:00,
2013-06-25 18:09:00,85.0,73.5,29.74,WNW,296,5.0,9.0,68,0.00,,,0.27,WUHU216DAVISVP2,2013-06-25 22:09:00,
2013-06-25 18:11:00,84.8,72.9,29.74,West,279,7.0,12.0,67,0.00,,,0.27,WUHU216DAVISVP2,2013-06-25 22:11:00,
2013-06-25 18:13:00,84.6,72.7,29.74,West,268,4.0,12.0,67,0.00,,,0.27,WUHU216DAVISVP2,2013-06-25 22:13:00,
2013-06-25 18:14:00,84.6,72.7,29.74,West,268,4.0,12.0,67,0.00,,,0.27,WUHU216DAVISVP2,2013-06-25 22:14:00,
2013-06-25 18:15:00,84.6,73.1,29.74,NW,309,5.0,12.0,68,0.00,,,0.27,WUHU216DAVISVP2,2013-06-25 22:15:00,
2013-06-25 18:17:00,84.6,73.1,29.74,NW,325,2.0,12.0,68,0.00,,,0.27,WUHU216DAVISVP2,2013-06-25 22:17:00,
2013-06-25 18:19:00,84.6,73.6,29.74,NW,304,5.0,12.0,69,0.00,,,0.27,WUHU216DAVISVP2,2013-06-25 22:19:00,
2013-06-25 18:21:00,84.5,73.0,29.74,WNW,293,7.0,11.0,68,0.00,,,0.27,WUHU216DAVISVP2,2013-06-25 22:21:00,
2013-06-25 18:23:00,84.4,73.4,29.74,NW,312,5.0,9.0,69,0.00,,,0.27,WUHU216DAVISVP2,2013-06-25 22:23:00,
2013-06-25 18:24:00,84.4,73.4,29.74,NW,312,5.0,9.0,69,0.00,,,0.27,WUHU216DAVISVP2,2013-06-25 22:24:00,
2013-06-25 18:27:00,84.5,73.9,29.74,NNW,346,5.0,9.0,70,0.00,,,0.27,WUHU216DAVISVP2,2013-06-25 22:27:00,
2013-06-25 18:29:00,84.5,73.5,29.74,NNW,333,5.0,9.0,69,0.00,,,0.27,WUHU216DAVISVP2,2013-06-25 22:29:00,
2013-06-25 18:30:00,84.4,73.4,29.74,NW,313,4.0,8.0,69,0.00,,,0.27,WUHU216DAVISVP2,2013-06-25 22:30:00,
2013-06-25 18:32:00,84.4,73.8,29.74,NNE,15,6.0,9.0,70,0.00,,,0.27,WUHU216DAVISVP2,2013-06-25 22:32:00,
2013-06-25 18:35:00,84.3,74.1,29.74,NNW,344,9.0,10.0,71,0.00,,,0.27,WUHU216DAVISVP2,2013-06-25 22:35:00,
2013-06-25 18:37:00,83.8,74.0,29.74,NNW,342,4.0,10.0,72,0.00,,,0.27,WUHU216DAVISVP2,2013-06-25 22:37:00,
2013-06-25 18:39:00,83.6,73.8,29.74,NW,326,6.0,10.0,72,0.00,,,0.27,WUHU216DAVISVP2,2013-06-25 22:39:00,
2013-06-25 18:40:00,83.6,73.8,29.74,NW,326,6.0,10.0,72,0.00,,,0.27,WUHU216DAVISVP2,2013-06-25 22:40:00,
2013-06-25 18:42:00,83.4,74.0,29.74,North,355,6.0,10.0,73,0.00,,,0.27,WUHU216DAVISVP2,2013-06-25 22:42:00,
2013-06-25 18:44:00,83.2,73.9,29.74,NNW,327,5.0,10.0,73,0.00,,,0.27,WUHU216DAVISVP2,2013-06-25 22:44:00,
2013-06-25 18:45:00,83.2,73.9,29.74,NNW,327,5.0,10.0,73,0.00,,,0.27,WUHU216DAVISVP2,2013-06-25 22:45:00,
2013-06-25 18:48:00,82.9,73.6,29.74,NNW,329,6.0,10.0,73,0.00,,,0.27,WUHU216DAVISVP2,2013-06-25 22:48:00,
2013-06-25 18:50:00,82.8,73.9,29.74,NNE,20,7.0,10.0,74,0.00,,,0.27,WUHU216DAVISVP2,2013-06-25 22:50:00,
2013-06-25 18:52:00,82.7,73.8,29.74,NNE,27,7.0,10.0,74,0.00,,,0.27,WUHU216DAVISVP2,2013-06-25 22:52:00,
2013-06-25 18:53:00,82.7,73.4,29.74,NNW,336,6.0,10.0,73,0.00,,,0.27,WUHU216DAVISVP2,2013-06-25 22:53:00,
2013-06-25 18:55:00,82.6,73.3,29.74,North,360,5.0,10.0,73,0.00,,,0.27,WUHU216DAVISVP2,2013-06-25 22:55:00,
2013-06-25 18:57:00,82.5,73.6,29.74,NNE,17,2.0,10.0,74,0.00,,,0.27,WUHU216DAVISVP2,2013-06-25 22:57:00,
2013-06-25 18:59:00,82.5,73.6,29.74,NNE,15,6.0,9.0,74,0.00,,,0.27,WUHU216DAVISVP2,2013-06-25 22:59:00,
2013-06-25 19:00:00,82.4,73.5,29.74,NNE,14,2.0,9.0,74,0.00,,,0.27,WUHU216DAVISVP2,2013-06-25 23:00:00,
2013-06-25 19:02:00,82.4,73.5,29.74,NNE,30,5.0,9.0,74,0.00,,,0.27,WUHU216DAVISVP2,2013-06-25 23:02:00,
2013-06-25 19:04:00,82.2,73.3,29.74,North,355,4.0,9.0,74,0.00,,,0.27,WUHU216DAVISVP2,2013-06-25 23:04:00,
2013-06-25 19:05:00,82.2,73.3,29.74,North,355,4.0,9.0,74,0.00,,,0.27,WUHU216DAVISVP2,2013-06-25 23:05:00,
2013-06-25 19:06:00,82.1,73.2,29.74,North,351,3.0,9.0,74,0.00,,,0.27,WUHU216DAVISVP2,2013-06-25 23:06:00,
2013-06-25 19:08:00,82.1,73.6,29.74,NW,322,5.0,9.0,75,0.00,,,0.27,WUHU216DAVISVP2,2013-06-25 23:08:00,
2013-06-25 19:10:00,82.1,73.6,29.74,NNW,332,4.0,9.0,75,0.00,,,0.27,WUHU216DAVISVP2,2013-06-25 23:10:00,
2013-06-25 19:11:00,82.1,73.6,29.74,NNW,332,4.0,9.0,75,0.00,,,0.27,WUHU216DAVISVP2,2013-06-25 23:11:00,
2013-06-25 19:14:00,82.2,73.7,29.73,North,10,2.0,6.0,75,0.00,,,0.27,WUHU216DAVISVP2,2013-06-25 23:14:00,
2013-06-25 19:15:00,82.2,73.7,29.73,NNE,32,0.0,6.0,75,0.00,,,0.27,WUHU216DAVISVP2,2013-06-25 23:15:00,
2013-06-25 19:16:00,82.2,73.7,29.73,NNE,32,0.0,6.0,75,0.00,,,0.27,WUHU216DAVISVP2,2013-06-25 23:16:00,
2013-06-25 19:18:00,82.1,74.0,29.73,NE,34,1.0,6.0,76,0.00,,,0.27,WUHU216DAVISVP2,2013-06-25 23:18:00,
2013-06-25 19:20:00,82.0,73.5,29.74,NE,34,1.0,6.0,75,0.00,,,0.27,WUHU216DAVISVP2,2013-06-25 23:20:00,
2013-06-25 19:21:00,82.0,73.5,29.74,NE,34,1.0,6.0,75,0.00,,,0.27,WUHU216DAVISVP2,2013-06-25 23:21:00,
2013-06-25 19:23:00,81.7,73.2,29.74,NNE,13,2.0,4.0,75,0.00,,,0.27,WUHU216DAVISVP2,2013-06-25 23:23:00,
2013-06-25 19:27:00,81.5,73.4,29.74,NNE,15,2.0,5.0,76,0.00,,,0.27,WUHU216DAVISVP2,2013-06-25 23:27:00,
2013-06-25 19:29:00,81.2,73.5,29.74,NNW,346,4.0,5.0,77,0.00,,,0.27,WUHU216DAVISVP2,2013-06-25 23:29:00,
2013-06-25 19:30:00,81.1,73.4,29.74,NNW,346,0.0,5.0,77,0.00,,,0.27,WUHU216DAVISVP2,2013-06-25 23:30:00,
2013-06-25 19:32:00,81.1,73.4,29.74,NNW,346,0.0,5.0,77,0.00,,,0.27,WUHU216DAVISVP2,2013-06-25 23:32:00,
2013-06-25 19:33:00,81.0,73.3,29.74,NNW,346,1.0,5.0,77,0.00,,,0.27,WUHU216DAVISVP2,2013-06-25 23:33:00,
2013-06-25 19:35:00,80.9,73.5,29.74,NNW,346,0.0,5.0,78,0.00,,,0.27,WUHU216DAVISVP2,2013-06-25 23:35:00,
2013-06-25 19:37:00,80.7,73.3,29.74,NNW,346,0.0,4.0,78,0.00,,,0.27,WUHU216DAVISVP2,2013-06-25 23:37:00,
2013-06-25 19:40:00,80.5,73.5,29.74,NNW,346,0.0,2.0,79,0.00,,,0.27,WUHU216DAVISVP2,2013-06-25 23:40:00,
2013-06-25 19:42:00,80.5,73.5,29.74,NNW,346,0.0,2.0,79,0.00,,,0.27,WUHU216DAVISVP2,2013-06-25 23:42:00,
2013-06-25 19:43:00,80.5,73.5,29.74,NNW,346,0.0,2.0,79,0.00,,,0.27,WUHU216DAVISVP2,2013-06-25 23:43:00,
2013-06-25 19:45:00,80.4,73.4,29.74,NNW,346,0.0,1.0,79,0.00,,,0.27,WUHU216DAVISVP2,2013-06-25 23:45:00,
2013-06-25 19:46:00,80.4,73.4,29.74,NNW,346,0.0,0.0,79,0.00,,,0.27,WUHU216DAVISVP2,2013-06-25 23:46:00,
2013-06-25 19:47:00,80.4,73.4,29.74,NNW,346,0.0,0.0,79,0.00,,,0.27,WUHU216DAVISVP2,2013-06-25 23:47:00,
2013-06-25 19:48:00,80.3,73.3,29.75,NNW,346,0.0,0.0,79,0.00,,,0.27,WUHU216DAVISVP2,2013-06-25 23:48:00,
2013-06-25 19:52:00,80.1,73.1,29.75,NNW,346,0.0,0.0,79,0.00,,,0.27,WUHU216DAVISVP2,2013-06-25 23:52:00,
2013-06-25 19:54:00,80.0,73.3,29.75,NNW,346,0.0,0.0,80,0.00,,,0.27,WUHU216DAVISVP2,2013-06-25 23:54:00,
2013-06-25 19:57:00,79.8,73.1,29.74,NNW,346,0.0,0.0,80,0.00,,,0.27,WUHU216DAVISVP2,2013-06-25 23:57:00,
2013-06-25 19:59:00,79.8,73.4,29.74,NNW,346,0.0,0.0,81,0.00,,,0.27,WUHU216DAVISVP2,2013-06-25 23:59:00,
2013-06-25 20:02:00,79.7,73.3,29.73,NNW,346,0.0,1.0,81,0.00,,,0.27,WUHU216DAVISVP2,2013-06-26 00:02:00,
2013-06-25 20:04:00,79.6,73.6,29.73,NNW,346,0.0,1.0,82,0.00,,,0.27,WUHU216DAVISVP2,2013-06-26 00:04:00,
2013-06-25 20:07:00,79.4,73.4,29.73,NNW,346,0.0,1.0,82,0.00,,,0.27,WUHU216DAVISVP2,2013-06-26 00:07:00,
2013-06-25 20:08:00,79.3,73.3,29.73,NNW,346,0.0,1.0,82,0.00,,,0.27,WUHU216DAVISVP2,2013-06-26 00:08:00,
2013-06-25 20:10:00,79.2,73.2,29.73,NNW,346,0.0,1.0,82,0.00,,,0.27,WUHU216DAVISVP2,2013-06-26 00:10:00,
2013-06-25 20:12:00,79.2,73.2,29.73,NNW,346,0.0,1.0,82,0.00,,,0.27,WUHU216DAVISVP2,2013-06-26 00:12:00,
2013-06-25 20:13:00,79.2,73.2,29.73,NNW,346,0.0,1.0,82,0.00,,,0.27,WUHU216DAVISVP2,2013-06-26 00:13:00,
2013-06-25 20:15:00,79.0,73.5,29.74,NNW,346,0.0,2.0,83,0.00,,,0.27,WUHU216DAVISVP2,2013-06-26 00:15:00,
2013-06-25 20:17:00,79.0,73.5,29.74,NNW,346,0.0,2.0,83,0.00,,,0.27,WUHU216DAVISVP2,2013-06-26 00:17:00,
2013-06-25 20:18:00,79.0,73.5,29.74,NNW,346,0.0,2.0,83,0.00,,,0.27,WUHU216DAVISVP2,2013-06-26 00:18:00,
2013-06-25 20:20:00,78.9,73.4,29.74,NNW,346,0.0,2.0,83,0.00,,,0.27,WUHU216DAVISVP2,2013-06-26 00:20:00,
2013-06-25 20:23:00,78.8,73.6,29.77,West,266,13.0,13.0,84,0.00,,,0.27,WUHU216DAVISVP2,2013-06-26 00:23:00,
2013-06-25 20:25:00,78.5,71.4,29.77,West,266,9.0,24.0,79,0.01,,,0.28,WUHU216DAVISVP2,2013-06-26 00:25:00,
2013-06-25 20:26:00,77.3,70.0,29.77,West,269,10.0,24.0,78,0.07,,,0.34,WUHU216DAVISVP2,2013-06-26 00:26:00,
2013-06-25 20:28:00,75.8,69.6,29.77,WNW,284,2.0,24.0,81,0.13,,,0.40,WUHU216DAVISVP2,2013-06-26 00:28:00,
2013-06-25 20:30:00,74.7,69.3,29.77,NW,319,10.0,24.0,83,0.19,,,0.46,WUHU216DAVISVP2,2013-06-26 00:30:00,
2013-06-25 20:31:00,73.7,68.6,29.77,NW,325,8.0,24.0,84,0.23,,,0.50,WUHU216DAVISVP2,2013-06-26 00:31:00,
2013-06-25 20:33:00,72.9,68.2,29.76,NNE,23,8.0,24.0,85,0.26,,,0.53,WUHU216DAVISVP2,2013-06-26 00:33:00,
2013-06-25 20:34:00,72.4,67.3,29.75,NNW,336,2.0,19.0,84,0.26,,,0.53,WUHU216DAVISVP2,2013-06-26 00:34:00,
2013-06-25 20:38:00,71.7,67.3,29.75,SSW,209,3.0,15.0,86,0.27,,,0.54,WUHU216DAVISVP2,2013-06-26 00:38:00,
2013-06-25 20:39:00,71.5,67.4,29.75,South,178,2.0,14.0,87,0.27,,,0.54,WUHU216DAVISVP2,2013-06-26 00:39:00,
2013-06-25 20:41:00,71.4,67.7,29.75,ESE,117,1.0,14.0,88,0.27,,,0.54,WUHU216DAVISVP2,2013-06-26 00:41:00,
2013-06-25 20:43:00,71.3,67.9,29.75,SSE,167,1.0,14.0,89,0.27,,,0.54,WUHU216DAVISVP2,2013-06-26 00:43:00,
2013-06-25 20:48:00,71.1,68.0,29.74,ESE,116,1.0,3.0,90,0.27,,,0.54,WUHU216DAVISVP2,2013-06-26 00:48:00,
2013-06-25 20:50:00,71.0,67.9,29.74,NE,46,1.0,4.0,90,0.27,,,0.54,WUHU216DAVISVP2,2013-06-26 00:50:00,
2013-06-25 20:51:00,70.9,67.8,29.74,NE,46,0.0,4.0,90,0.27,,,0.54,WUHU216DAVISVP2,2013-06-26 00:51:00,
2013-06-25 20:53:00,70.7,67.6,29.75,NNE,18,2.0,4.0,90,0.27,,,0.54,WUHU216DAVISVP2,2013-06-26 00:53:00,
2013-06-25 20:54:00,70.7,67.6,29.75,NNE,18,2.0,4.0,90,0.27,,,0.54,WUHU216DAVISVP2,2013-06-26 00:54:00,
2013-06-25 20:57:00,70.8,68.3,29.75,West,271,0.0,4.0,92,0.27,,,0.54,WUHU216DAVISVP2,2013-06-26 00:57:00,
2013-06-25 20:59:00,70.7,68.2,29.75,SW,227,0.0,4.0,92,0.27,,,0.54,WUHU216DAVISVP2,2013-06-26 00:59:00,
2013-06-25 21:00:00,70.7,68.2,29.76,SSW,211,2.0,6.0,92,0.27,,,0.54,WUHU216DAVISVP2,2013-06-26 01:00:00,
2013-06-25 21:03:00,70.7,68.2,29.76,South,186,1.0,6.0,92,0.27,,,0.54,WUHU216DAVISVP2,2013-06-26 01:03:00,
2013-06-25 21:04:00,70.7,68.2,29.76,South,186,1.0,6.0,92,0.27,,,0.54,WUHU216DAVISVP2,2013-06-26 01:04:00,
2013-06-25 21:06:00,70.8,68.3,29.76,SSW,192,2.0,7.0,92,0.27,,,0.54,WUHU216DAVISVP2,2013-06-26 01:06:00,
2013-06-25 21:08:00,70.8,68.3,29.76,WSW,244,1.0,7.0,92,0.27,,,0.54,WUHU216DAVISVP2,2013-06-26 01:08:00,
2013-06-25 21:09:00,70.8,68.3,29.76,WSW,244,1.0,7.0,92,0.27,,,0.54,WUHU216DAVISVP2,2013-06-26 01:09:00,
2013-06-25 21:10:00,70.8,68.3,29.76,West,259,1.0,7.0,92,0.27,,,0.54,WUHU216DAVISVP2,2013-06-26 01:10:00,
2013-06-25 21:12:00,70.9,68.4,29.77,SW,221,4.0,7.0,92,0.27,,,0.54,WUHU216DAVISVP2,2013-06-26 01:12:00,
2013-06-25 21:13:00,70.9,68.4,29.77,WSW,240,6.0,10.0,92,0.27,,,0.54,WUHU216DAVISVP2,2013-06-26 01:13:00,
2013-06-25 21:14:00,70.9,68.4,29.77,WSW,240,6.0,10.0,92,0.27,,,0.54,WUHU216DAVISVP2,2013-06-26 01:14:00,
2013-06-25 21:15:00,70.8,68.3,29.77,WSW,240,3.0,10.0,92,0.27,,,0.54,WUHU216DAVISVP2,2013-06-26 01:15:00,
2013-06-25 21:17:00,70.7,67.9,29.78,WSW,240,5.0,10.0,91,0.27,,,0.54,WUHU216DAVISVP2,2013-06-26 01:17:00,
2013-06-25 21:19:00,70.6,67.8,29.78,WSW,254,6.0,10.0,91,0.27,,,0.54,WUHU216DAVISVP2,2013-06-26 01:19:00,
2013-06-25 21:22:00,70.5,67.4,29.79,West,279,4.0,11.0,90,0.27,,,0.54,WUHU216DAVISVP2,2013-06-26 01:22:00,
2013-06-25 21:24:00,70.4,67.3,29.80,WNW,288,5.0,11.0,90,0.27,,,0.54,WUHU216DAVISVP2,2013-06-26 01:24:00,
2013-06-25 21:25:00,70.4,67.3,29.80,WNW,288,5.0,11.0,90,0.27,,,0.54,WUHU216DAVISVP2,2013-06-26 01:25:00,
2013-06-25 21:26:00,70.3,67.2,29.80,NNW,331,2.0,11.0,90,0.23,,,0.54,WUHU216DAVISVP2,2013-06-26 01:26:00,
2013-06-25 21:27:00,70.2,66.8,29.79,WNW,284,6.0,11.0,89,0.16,,,0.54,WUHU216DAVISVP2,2013-06-26 01:27:00,
2013-06-25 21:29:00,70.1,66.7,29.79,West,276,7.0,11.0,89,0.12,,,0.54,WUHU216DAVISVP2,2013-06-26 01:29:00,
2013-06-25 21:30:00,70.1,66.7,29.79,West,276,7.0,11.0,89,0.12,,,0.54,WUHU216DAVISVP2,2013-06-26 01:30:00,
2013-06-25 21:31:00,70.0,66.6,29.79,WNW,284,6.0,10.0,89,0.07,,,0.55,WUHU216DAVISVP2,2013-06-26 01:31:00,
2013-06-25 21:33:00,69.9,66.5,29.80,West,273,6.0,10.0,89,0.02,,,0.55,WUHU216DAVISVP2,2013-06-26 01:33:00,
2013-06-25 21:35:00,69.8,66.4,29.79,WNW,298,6.0,10.0,89,0.02,,,0.55,WUHU216DAVISVP2,2013-06-26 01:35:00,
2013-06-25 21:37:00,69.6,65.9,29.79,West,275,4.0,10.0,88,0.01,,,0.55,WUHU216DAVISVP2,2013-06-26 01:37:00,
2013-06-25 21:39:00,69.6,66.2,29.79,WNW,302,8.0,10.0,89,0.02,,,0.56,WUHU216DAVISVP2,2013-06-26 01:39:00,
2013-06-25 21:40:00,69.6,66.2,29.79,WNW,302,8.0,10.0,89,0.02,,,0.56,WUHU216DAVISVP2,2013-06-26 01:40:00,
2013-06-25 21:43:00,69.3,65.9,29.78,WSW,251,2.0,11.0,89,0.02,,,0.56,WUHU216DAVISVP2,2013-06-26 01:43:00,
2013-06-25 21:45:00,69.2,65.8,29.78,SW,230,2.0,11.0,89,0.03,,,0.57,WUHU216DAVISVP2,2013-06-26 01:45:00,
2013-06-25 21:48:00,69.1,66.0,29.78,SW,227,3.0,11.0,90,0.03,,,0.57,WUHU216DAVISVP2,2013-06-26 01:48:00,
2013-06-25 21:50:00,69.0,65.9,29.78,WNW,292,1.0,11.0,90,0.04,,,0.58,WUHU216DAVISVP2,2013-06-26 01:50:00,
2013-06-25 21:51:00,69.0,65.9,29.78,WNW,292,1.0,11.0,90,0.04,,,0.58,WUHU216DAVISVP2,2013-06-26 01:51:00,
2013-06-25 21:52:00,68.9,65.8,29.78,SSW,205,5.0,8.0,90,0.04,,,0.58,WUHU216DAVISVP2,2013-06-26 01:52:00,
2013-06-25 21:54:00,68.8,65.7,29.78,West,261,0.0,8.0,90,0.04,,,0.58,WUHU216DAVISVP2,2013-06-26 01:54:00,
2013-06-25 21:56:00,68.8,65.7,29.78,West,261,0.0,8.0,90,0.04,,,0.58,WUHU216DAVISVP2,2013-06-26 01:56:00,
2013-06-25 21:59:00,68.6,65.8,29.78,West,261,1.0,6.0,91,0.05,,,0.59,WUHU216DAVISVP2,2013-06-26 01:59:00,
2013-06-25 22:00:00,68.6,65.8,29.78,WNW,294,3.0,6.0,91,0.05,,,0.59,WUHU216DAVISVP2,2013-06-26 02:00:00,
2013-06-25 22:01:00,68.6,65.8,29.78,WNW,294,3.0,6.0,91,0.05,,,0.59,WUHU216DAVISVP2,2013-06-26 02:01:00,
2013-06-25 22:04:00,68.5,65.7,29.78,WNW,283,1.0,6.0,91,0.06,,,0.60,WUHU216DAVISVP2,2013-06-26 02:04:00,
2013-06-25 22:05:00,68.5,65.8,29.78,WNW,283,0.0,6.0,91,0.06,,,0.60,WUHU216DAVISVP2,2013-06-26 02:05:00,
2013-06-25 22:06:00,68.5,65.8,29.78,WNW,283,0.0,6.0,91,0.06,,,0.60,WUHU216DAVISVP2,2013-06-26 02:06:00,
2013-06-25 22:07:00,68.4,65.7,29.78,WNW,283,0.0,5.0,91,0.07,,,0.61,WUHU216DAVISVP2,2013-06-26 02:07:00,
2013-06-25 22:10:00,68.4,66.0,29.79,SW,235,0.0,4.0,92,0.07,,,0.61,WUHU216DAVISVP2,2013-06-26 02:10:00,
2013-06-25 22:11:00,68.4,66.0,29.79,SW,235,0.0,4.0,92,0.07,,,0.61,WUHU216DAVISVP2,2013-06-26 02:11:00,
2013-06-25 22:13:00,68.4,66.0,29.79,WSW,237,0.0,4.0,92,0.08,,,0.62,WUHU216DAVISVP2,2013-06-26 02:13:00,
2013-06-25 22:15:00,68.3,65.9,29.78,SSW,202,0.0,4.0,92,0.08,,,0.62,WUHU216DAVISVP2,2013-06-26 02:15:00,
2013-06-25 22:16:00,68.3,65.9,29.78,SSW,202,0.0,4.0,92,0.08,,,0.62,WUHU216DAVISVP2,2013-06-26 02:16:00,
2013-06-25 22:17:00,68.3,65.9,29.78,SSW,202,0.0,4.0,92,0.08,,,0.62,WUHU216DAVISVP2,2013-06-26 02:17:00,
2013-06-25 22:19:00,68.3,66.2,29.78,WSW,244,1.0,3.0,93,0.08,,,0.62,WUHU216DAVISVP2,2013-06-26 02:19:00,
2013-06-25 22:20:00,68.3,66.2,29.77,WSW,244,0.0,2.0,93,0.08,,,0.62,WUHU216DAVISVP2,2013-06-26 02:20:00,
2013-06-25 22:22:00,68.3,66.2,29.77,WSW,244,0.0,2.0,93,0.08,,,0.62,WUHU216DAVISVP2,2013-06-26 02:22:00,
2013-06-25 22:24:00,68.3,66.2,29.78,WSW,244,1.0,3.0,93,0.08,,,0.62,WUHU216DAVISVP2,2013-06-26 02:24:00,
2013-06-25 22:26:00,68.3,66.2,29.78,West,272,0.0,3.0,93,0.08,,,0.62,WUHU216DAVISVP2,2013-06-26 02:26:00,
2013-06-25 22:27:00,68.3,66.2,29.78,West,272,0.0,3.0,93,0.08,,,0.62,WUHU216DAVISVP2,2013-06-26 02:27:00,
2013-06-25 22:28:00,68.3,66.2,29.79,West,272,1.0,3.0,93,0.08,,,0.62,WUHU216DAVISVP2,2013-06-26 02:28:00,
2013-06-25 22:29:00,68.3,66.2,29.79,West,272,3.0,3.0,93,0.08,,,0.62,WUHU216DAVISVP2,2013-06-26 02:29:00,
2013-06-25 22:32:00,68.3,66.2,29.79,West,272,0.0,4.0,93,0.08,,,0.63,WUHU216DAVISVP2,2013-06-26 02:32:00,
2013-06-25 22:36:00,68.3,66.5,29.79,West,272,0.0,4.0,94,0.08,,,0.63,WUHU216DAVISVP2,2013-06-26 02:36:00,
2013-06-25 22:37:00,68.3,66.5,29.79,West,272,0.0,4.0,94,0.08,,,0.63,WUHU216DAVISVP2,2013-06-26 02:37:00,
2013-06-25 22:38:00,68.3,66.5,29.80,West,272,1.0,4.0,94,0.07,,,0.63,WUHU216DAVISVP2,2013-06-26 02:38:00,
2013-06-25 22:41:00,68.3,66.5,29.80,West,272,1.0,3.0,94,0.07,,,0.63,WUHU216DAVISVP2,2013-06-26 02:41:00,
2013-06-25 22:42:00,68.3,66.5,29.80,West,272,1.0,3.0,94,0.07,,,0.63,WUHU216DAVISVP2,2013-06-26 02:42:00,
2013-06-25 22:43:00,68.3,66.5,29.80,West,275,3.0,3.0,94,0.07,,,0.63,WUHU216DAVISVP2,2013-06-26 02:43:00,
2013-06-25 22:47:00,68.1,66.3,29.81,West,259,0.0,6.0,94,0.07,,,0.64,WUHU216DAVISVP2,2013-06-26 02:47:00,
2013-06-25 22:48:00,68.2,66.4,29.81,SW,232,0.0,6.0,94,0.07,,,0.64,WUHU216DAVISVP2,2013-06-26 02:48:00,
2013-06-25 22:50:00,68.1,66.3,29.81,West,264,0.0,6.0,94,0.07,,,0.64,WUHU216DAVISVP2,2013-06-26 02:50:00,
2013-06-25 22:51:00,68.1,66.3,29.82,WSW,254,2.0,6.0,94,0.06,,,0.64,WUHU216DAVISVP2,2013-06-26 02:51:00,
2013-06-25 22:52:00,68.1,66.3,29.82,WSW,254,2.0,6.0,94,0.06,,,0.64,WUHU216DAVISVP2,2013-06-26 02:52:00,
2013-06-25 22:53:00,68.1,66.3,29.82,WSW,243,6.0,6.0,94,0.07,,,0.65,WUHU216DAVISVP2,2013-06-26 02:53:00,
2013-06-25 22:55:00,68.1,66.3,29.82,West,263,0.0,6.0,94,0.08,,,0.66,WUHU216DAVISVP2,2013-06-26 02:55:00,
2013-06-25 22:56:00,68.0,66.2,29.81,SW,230,1.0,6.0,94,0.08,,,0.66,WUHU216DAVISVP2,2013-06-26 02:56:00,
2013-06-25 22:57:00,68.0,66.2,29.81,SW,230,1.0,6.0,94,0.08,,,0.66,WUHU216DAVISVP2,2013-06-26 02:57:00,
2013-06-25 22:58:00,67.9,65.8,29.82,SW,234,0.0,6.0,93,0.08,,,0.67,WUHU216DAVISVP2,2013-06-26 02:58:00,
2013-06-25 23:00:00,67.9,66.1,29.82,WSW,257,3.0,6.0,94,0.08,,,0.67,WUHU216DAVISVP2,2013-06-26 03:00:00,
2013-06-25 23:01:00,67.8,66.0,29.82,West,273,2.0,6.0,94,0.09,,,0.68,WUHU216DAVISVP2,2013-06-26 03:01:00,
2013-06-25 23:03:00,67.8,66.0,29.82,West,273,2.0,6.0,94,0.09,,,0.68,WUHU216DAVISVP2,2013-06-26 03:03:00,
2013-06-25 23:05:00,67.7,65.9,29.82,West,267,4.0,7.0,94,0.09,,,0.69,WUHU216DAVISVP2,2013-06-26 03:05:00,
2013-06-25 23:08:00,67.7,65.9,29.82,West,271,5.0,8.0,94,0.09,,,0.69,WUHU216DAVISVP2,2013-06-26 03:08:00,
2013-06-25 23:09:00,67.6,65.8,29.82,West,261,4.0,8.0,94,0.09,,,0.70,WUHU216DAVISVP2,2013-06-26 03:09:00,
2013-06-25 23:11:00,67.6,65.8,29.82,WSW,248,1.0,8.0,94,0.10,,,0.71,WUHU216DAVISVP2,2013-06-26 03:11:00,
2013-06-25 23:13:00,67.6,65.8,29.82,WSW,248,1.0,8.0,94,0.10,,,0.71,WUHU216DAVISVP2,2013-06-26 03:13:00,
2013-06-25 23:15:00,67.6,65.8,29.82,WSW,256,1.0,8.0,94,0.10,,,0.72,WUHU216DAVISVP2,2013-06-26 03:15:00,
2013-06-25 23:18:00,67.5,65.4,29.82,WSW,250,1.0,6.0,93,0.10,,,0.72,WUHU216DAVISVP2,2013-06-26 03:18:00,
2013-06-25 23:20:00,67.5,65.4,29.82,WSW,237,4.0,6.0,93,0.11,,,0.73,WUHU216DAVISVP2,2013-06-26 03:20:00,
2013-06-25 23:23:00,67.6,65.5,29.83,WSW,244,1.0,6.0,93,0.12,,,0.74,WUHU216DAVISVP2,2013-06-26 03:23:00,
2013-06-25 23:25:00,67.6,65.5,29.83,WSW,246,5.0,12.0,93,0.13,,,0.75,WUHU216DAVISVP2,2013-06-26 03:25:00,
2013-06-25 23:27:00,67.6,65.5,29.84,West,281,5.0,12.0,93,0.14,,,0.76,WUHU216DAVISVP2,2013-06-26 03:27:00,
2013-06-25 23:28:00,67.6,65.5,29.84,West,281,5.0,12.0,93,0.14,,,0.76,WUHU216DAVISVP2,2013-06-26 03:28:00,
2013-06-25 23:30:00,67.6,65.5,29.84,West,266,8.0,12.0,93,0.14,,,0.77,WUHU216DAVISVP2,2013-06-26 03:30:00,
2013-06-25 23:32:00,67.6,65.5,29.84,West,281,4.0,12.0,93,0.15,,,0.78,WUHU216DAVISVP2,2013-06-26 03:32:00,
2013-06-25 23:33:00,67.6,65.5,29.84,West,281,4.0,12.0,93,0.15,,,0.78,WUHU216DAVISVP2,2013-06-26 03:33:00,
2013-06-25 23:34:00,67.7,65.6,29.84,West,265,0.0,10.0,93,0.15,,,0.78,WUHU216DAVISVP2,2013-06-26 03:34:00,
2013-06-25 23:36:00,67.7,65.6,29.84,SW,236,1.0,10.0,93,0.16,,,0.79,WUHU216DAVISVP2,2013-06-26 03:36:00,
2013-06-25 23:37:00,67.7,65.6,29.84,WSW,237,4.0,11.0,93,0.16,,,0.79,WUHU216DAVISVP2,2013-06-26 03:37:00,
2013-06-25 23:38:00,67.7,65.6,29.84,WSW,237,4.0,11.0,93,0.16,,,0.79,WUHU216DAVISVP2,2013-06-26 03:38:00,
2013-06-25 23:40:00,67.6,65.5,29.85,WSW,239,0.0,11.0,93,0.17,,,0.80,WUHU216DAVISVP2,2013-06-26 03:40:00,
2013-06-25 23:42:00,67.6,65.5,29.85,West,270,5.0,11.0,93,0.18,,,0.81,WUHU216DAVISVP2,2013-06-26 03:42:00,
2013-06-25 23:43:00,67.6,65.5,29.85,West,270,5.0,11.0,93,0.18,,,0.81,WUHU216DAVISVP2,2013-06-26 03:43:00,
2013-06-25 23:44:00,67.6,65.5,29.85,SSW,211,6.0,11.0,93,0.17,,,0.81,WUHU216DAVISVP2,2013-06-26 03:44:00,
2013-06-25 23:46:00,67.6,65.5,29.85,WSW,239,1.0,11.0,93,0.18,,,0.82,WUHU216DAVISVP2,2013-06-26 03:46:00,
2013-06-25 23:47:00,67.5,65.4,29.85,WSW,246,5.0,15.0,93,0.18,,,0.82,WUHU216DAVISVP2,2013-06-26 03:47:00,
2013-06-25 23:48:00,67.5,65.4,29.85,WSW,246,5.0,15.0,93,0.18,,,0.82,WUHU216DAVISVP2,2013-06-26 03:48:00,
2013-06-25 23:49:00,67.4,65.3,29.85,SW,232,5.0,15.0,93,0.19,,,0.83,WUHU216DAVISVP2,2013-06-26 03:49:00,
2013-06-25 23:54:00,67.4,65.3,29.85,WSW,257,10.0,15.0,93,0.19,,,0.84,WUHU216DAVISVP2,2013-06-26 03:54:00,
2013-06-25 23:57:00,67.4,65.3,29.84,South,181,7.0,15.0,93,0.19,,,0.85,WUHU216DAVISVP2,2013-06-26 03:57:00,
2013-06-25 23:59:00,67.4,65.3,29.84,SSE,161,7.0,15.0,93,0.19,,,0.86,WUHU216DAVISVP2,2013-06-26 03:59:00,